Wetterdaten: Donnerstag, 22.03.2018
Datum Zeit Temp. Aussen Temp. o. S. +5cm Feuchte Auss BlattFeu 1 Luftdruck Regen Sonnenschein Regendauer Solar Windben Empfang
22.03.2018 00:00 2,5 C 2,2 C 0,6 C 84 % 0 lf 1023,3 hPa 0,0 l/m 0 min 0 min 0 W/m 9,0 km/h (2 Bft) 95,74 %
22.03.2018 00:02 2,5 C 2,2 C 0,6 C 84 % 0 lf 1023,3 hPa 0,0 l/m 0 min 0 min 0 W/m 6,8 km/h (2 Bft) 97,67 %
22.03.2018 00:04 2,5 C 2,2 C 0,6 C 84 % 0 lf 1023,3 hPa 0,0 l/m 0 min 0 min 0 W/m 11,3 km/h (2 Bft) 95,74 %
22.03.2018 00:08 2,5 C 2,2 C 0,6 C 84 % 0 lf 1023,3 hPa 0,0 l/m 0 min 0 min 0 W/m 11,3 km/h (2 Bft) 91,57 %
22.03.2018 00:10 2,5 C 2,2 C 0,6 C 84 % 0 lf 1023,2 hPa 0,0 l/m 0 min 0 min 0 W/m 11,3 km/h (2 Bft) 95,65 %
22.03.2018 00:12 2,5 C 2,2 C 0,6 C 84 % 0 lf 1023,2 hPa 0,0 l/m 0 min 0 min 0 W/m 9,0 km/h (2 Bft) 93,62 %
22.03.2018 00:14 2,5 C 2,2 C 0,6 C 84 % 0 lf 1023,2 hPa 0,0 l/m 0 min 0 min 0 W/m 9,0 km/h (2 Bft) 95,74 %
22.03.2018 00:16 2,5 C 2,2 C 0,6 C 84 % 0 lf 1023,2 hPa 0,0 l/m 0 min 0 min 0 W/m 13,5 km/h (3 Bft) 91,49 %
22.03.2018 00:18 2,5 C 2,2 C 0,6 C 84 % 0 lf 1023,2 hPa 0,0 l/m 0 min 0 min 0 W/m 11,3 km/h (2 Bft) 95,74 %
22.03.2018 00:20 2,5 C 2,2 C 0,6 C 84 % 0 lf 1023,1 hPa 0,0 l/m 0 min 0 min 0 W/m 11,3 km/h (2 Bft) 94,83 %
22.03.2018 00:22 2,4 C 2,2 C 1,1 C 84 % 0 lf 1023,1 hPa 0,0 l/m 0 min 0 min 0 W/m 11,3 km/h (2 Bft) 94,29 %
22.03.2018 00:24 2,4 C 2,2 C 1,1 C 84 % 0 lf 1023,0 hPa 0,0 l/m 0 min 0 min 0 W/m 9,0 km/h (2 Bft) 95,74 %
22.03.2018 00:26 2,4 C 2,2 C 1,1 C 84 % 0 lf 1022,9 hPa 0,0 l/m 0 min 0 min 0 W/m 9,0 km/h (2 Bft) 95,74 %
22.03.2018 00:28 2,4 C 2,2 C 1,1 C 84 % 0 lf 1022,9 hPa 0,0 l/m 0 min 0 min 0 W/m 13,5 km/h (3 Bft) 95,74 %
22.03.2018 00:30 2,4 C 2,2 C 1,1 C 84 % 0 lf 1022,9 hPa 0,0 l/m 0 min 0 min 0 W/m 11,3 km/h (2 Bft) 93,62 %
22.03.2018 00:32 2,4 C 2,2 C 1,1 C 84 % 0 lf 1022,9 hPa 0,0 l/m 0 min 0 min 0 W/m 13,5 km/h (3 Bft) 93,62 %
22.03.2018 00:34 2,4 C 2,2 C 1,1 C 85 % 0 lf 1022,9 hPa 0,0 l/m 0 min 0 min 0 W/m 13,5 km/h (3 Bft) 95,65 %
22.03.2018 00:36 2,5 C 2,2 C 1,1 C 85 % 0 lf 1022,9 hPa 0,0 l/m 0 min 0 min 0 W/m 15,8 km/h (3 Bft) 95,74 %
22.03.2018 00:38 2,5 C 2,2 C 1,1 C 85 % 0 lf 1023,0 hPa 0,0 l/m 0 min 0 min 0 W/m 11,3 km/h (2 Bft) 93,62 %
22.03.2018 00:40 2,5 C 2,2 C 1,1 C 85 % 0 lf 1023,0 hPa 0,0 l/m 0 min 0 min 0 W/m 15,8 km/h (3 Bft) 97,87 %
22.03.2018 00:42 2,5 C 2,2 C 1,1 C 85 % 0 lf 1022,9 hPa 0,0 l/m 0 min 0 min 0 W/m 15,8 km/h (3 Bft) 95,74 %
22.03.2018 00:44 2,6 C 2,2 C 1,1 C 85 % 0 lf 1022,8 hPa 0,0 l/m 0 min 0 min 0 W/m 11,3 km/h (2 Bft) 97,87 %
22.03.2018 00:46 2,6 C 2,2 C 1,1 C 85 % 0 lf 1022,8 hPa 0,0 l/m 0 min 0 min 0 W/m 9,0 km/h (2 Bft) 97,83 %
22.03.2018 00:48 2,6 C 2,8 C 1,1 C 85 % 0 lf 1022,8 hPa 0,0 l/m 0 min 0 min 0 W/m 11,3 km/h (2 Bft) 97,87 %
22.03.2018 00:50 2,6 C 2,8 C 1,1 C 85 % 0 lf 1022,8 hPa 0,0 l/m 0 min 0 min 0 W/m 13,5 km/h (3 Bft) 96,61 %
22.03.2018 00:52 2,6 C 2,8 C 1,1 C 85 % 0 lf 1022,8 hPa 0,0 l/m 0 min 0 min 0 W/m 11,3 km/h (2 Bft) 94,29 %
22.03.2018 00:54 2,6 C 2,8 C 1,1 C 85 % 0 lf 1022,8 hPa 0,0 l/m 0 min 0 min 0 W/m 11,3 km/h (2 Bft) 93,62 %
22.03.2018 00:56 2,6 C 2,8 C 1,1 C 85 % 0 lf 1022,7 hPa 0,0 l/m 0 min 0 min 0 W/m 13,5 km/h (3 Bft) 97,87 %
22.03.2018 00:58 2,6 C 2,8 C 1,1 C 85 % 0 lf 1022,7 hPa 0,0 l/m 0 min 0 min 0 W/m 9,0 km/h (2 Bft) 97,83 %
22.03.2018 01:00 2,6 C 2,8 C 1,1 C 85 % 0 lf 1022,7 hPa 0,0 l/m 0 min 0 min 0 W/m 15,8 km/h (3 Bft) 97,87 %
22.03.2018 01:02 2,6 C 2,8 C 1,1 C 85 % 0 lf 1022,7 hPa 0,0 l/m 0 min 0 min 0 W/m 9,0 km/h (2 Bft) 91,49 %
22.03.2018 01:04 2,6 C 2,8 C 1,1 C 85 % 0 lf 1022,7 hPa 0,0 l/m 0 min 0 min 0 W/m 13,5 km/h (3 Bft) 95,74 %
22.03.2018 01:06 2,6 C 2,8 C 1,1 C 85 % 0 lf 1022,7 hPa 0,0 l/m 0 min 0 min 0 W/m 11,3 km/h (2 Bft) 93,62 %
22.03.2018 01:08 2,6 C 2,8 C 1,1 C 85 % 0 lf 1022,7 hPa 0,0 l/m 0 min 0 min 0 W/m 15,8 km/h (3 Bft) 95,65 %
22.03.2018 01:10 2,6 C 2,8 C 1,1 C 85 % 0 lf 1022,7 hPa 0,0 l/m 0 min 0 min 0 W/m 15,8 km/h (3 Bft) 93,62 %
22.03.2018 01:12 2,7 C 2,8 C 1,1 C 85 % 0 lf 1022,7 hPa 0,0 l/m 0 min 0 min 0 W/m 13,5 km/h (3 Bft) 93,62 %
22.03.2018 01:14 2,7 C 2,8 C 1,7 C 85 % 0 lf 1022,7 hPa 0,0 l/m 0 min 0 min 0 W/m 15,8 km/h (3 Bft) 93,62 %
22.03.2018 01:16 2,7 C 2,8 C 1,7 C 85 % 0 lf 1022,7 hPa 0,0 l/m 0 min 0 min 0 W/m 15,8 km/h (3 Bft) 95,74 %
22.03.2018 01:18 2,7 C 2,8 C 1,7 C 85 % 0 lf 1022,6 hPa 0,0 l/m 0 min 0 min 0 W/m 11,3 km/h (2 Bft) 93,62 %
22.03.2018 01:20 2,7 C 2,8 C 1,7 C 85 % 0 lf 1022,7 hPa 0,0 l/m 0 min 0 min 0 W/m 15,8 km/h (3 Bft) 94,23 %
22.03.2018 01:22 2,7 C 2,8 C 1,7 C 85 % 0 lf 1022,6 hPa 0,0 l/m 0 min 0 min 0 W/m 9,0 km/h (2 Bft) 95,12 %
22.03.2018 01:24 2,7 C 2,8 C 1,7 C 85 % 0 lf 1022,6 hPa 0,0 l/m 0 min 0 min 0 W/m 13,5 km/h (3 Bft) 95,74 %
22.03.2018 01:26 2,7 C 2,8 C 1,7 C 85 % 0 lf 1022,5 hPa 0,0 l/m 0 min 0 min 0 W/m 9,0 km/h (2 Bft) 93,62 %
22.03.2018 01:28 2,7 C 2,8 C 1,7 C 85 % 0 lf 1022,4 hPa 0,0 l/m 0 min 0 min 0 W/m 13,5 km/h (3 Bft) 95,74 %
22.03.2018 01:30 2,8 C 2,8 C 1,7 C 85 % 0 lf 1022,5 hPa 0,0 l/m 0 min 0 min 0 W/m 11,3 km/h (2 Bft) 95,74 %
22.03.2018 01:32 2,8 C 2,8 C 1,7 C 85 % 0 lf 1022,5 hPa 0,0 l/m 0 min 0 min 0 W/m 13,5 km/h (3 Bft) 93,48 %
22.03.2018 01:34 2,8 C 2,8 C 1,7 C 85 % 0 lf 1022,4 hPa 0,0 l/m 0 min 0 min 0 W/m 13,5 km/h (3 Bft) 95,74 %
22.03.2018 01:36 2,8 C 2,8 C 1,7 C 85 % 0 lf 1022,4 hPa 0,0 l/m 0 min 0 min 0 W/m 15,8 km/h (3 Bft) 93,62 %
22.03.2018 01:38 2,8 C 2,8 C 1,7 C 84 % 0 lf 1022,3 hPa 0,0 l/m 0 min 0 min 0 W/m 15,8 km/h (3 Bft) 95,74 %
22.03.2018 01:40 2,8 C 2,8 C 1,7 C 84 % 0 lf 1022,2 hPa 0,0 l/m 0 min 0 min 0 W/m 15,8 km/h (3 Bft) 95,74 %
22.03.2018 01:42 2,8 C 2,8 C 1,7 C 84 % 0 lf 1022,2 hPa 0,0 l/m 0 min 0 min 0 W/m 13,5 km/h (3 Bft) 91,49 %
22.03.2018 01:44 2,9 C 2,8 C 1,7 C 84 % 0 lf 1022,2 hPa 0,0 l/m 0 min 0 min 0 W/m 11,3 km/h (2 Bft) 95,65 %
22.03.2018 01:46 2,9 C 2,8 C 1,7 C 84 % 0 lf 1022,1 hPa 0,0 l/m 0 min 0 min 0 W/m 11,3 km/h (2 Bft) 95,74 %
22.03.2018 01:48 2,9 C 2,8 C 1,7 C 84 % 0 lf 1022,1 hPa 0,0 l/m 0 min 0 min 0 W/m 15,8 km/h (3 Bft) 95,74 %
22.03.2018 01:50 2,9 C 3,3 C 1,7 C 84 % 0 lf 1021,9 hPa 0,0 l/m 0 min 0 min 0 W/m 18,0 km/h (3 Bft) 98,11 %
22.03.2018 01:52 2,9 C 3,3 C 1,7 C 84 % 0 lf 1021,9 hPa 0,0 l/m 0 min 0 min 0 W/m 15,8 km/h (3 Bft) 95,12 %
22.03.2018 01:54 2,9 C 3,3 C 1,7 C 84 % 0 lf 1021,8 hPa 0,0 l/m 0 min 0 min 0 W/m 18,0 km/h (3 Bft) 93,62 %
22.03.2018 01:56 3,0 C 3,3 C 2,2 C 83 % 0 lf 1021,7 hPa 0,0 l/m 0 min 0 min 0 W/m 13,5 km/h (3 Bft) 97,83 %
22.03.2018 01:58 3,0 C 3,3 C 2,2 C 83 % 0 lf 1021,8 hPa 0,0 l/m 0 min 0 min 0 W/m 24,8 km/h (4 Bft) 100,00 %
22.03.2018 02:00 3,1 C 3,3 C 2,2 C 83 % 0 lf 1021,7 hPa 0,0 l/m 0 min 0 min 0 W/m 18,0 km/h (3 Bft) 97,87 %
22.03.2018 02:02 3,1 C 3,3 C 2,2 C 83 % 0 lf 1021,6 hPa 0,0 l/m 0 min 0 min 0 W/m 15,8 km/h (3 Bft) 97,87 %
22.03.2018 02:04 3,1 C 3,3 C 2,2 C 83 % 0 lf 1021,6 hPa 0,0 l/m 0 min 0 min 0 W/m 18,0 km/h (3 Bft) 97,87 %
22.03.2018 02:06 3,2 C 3,3 C 2,2 C 83 % 0 lf 1021,6 hPa 0,0 l/m 0 min 0 min 0 W/m 13,5 km/h (3 Bft) 100,00 %
22.03.2018 02:08 3,2 C 3,3 C 2,2 C 83 % 0 lf 1021,6 hPa 0,0 l/m 0 min 0 min 0 W/m 20,3 km/h (4 Bft) 97,83 %
22.03.2018 02:10 3,2 C 3,3 C 2,2 C 83 % 0 lf 1021,5 hPa 0,0 l/m 0 min 0 min 0 W/m 15,8 km/h (3 Bft) 97,87 %
22.03.2018 02:12 3,3 C 3,3 C 2,2 C 83 % 0 lf 1021,4 hPa 0,0 l/m 0 min 0 min 0 W/m 15,8 km/h (3 Bft) 95,74 %
22.03.2018 02:14 3,3 C 3,3 C 2,2 C 82 % 0 lf 1021,4 hPa 0,0 l/m 0 min 0 min 0 W/m 11,3 km/h (2 Bft) 95,74 %
22.03.2018 02:16 3,3 C 3,3 C 2,2 C 82 % 0 lf 1021,4 hPa 0,0 l/m 0 min 0 min 0 W/m 13,5 km/h (3 Bft) 97,87 %
22.03.2018 02:18 3,3 C 3,3 C 2,2 C 82 % 0 lf 1021,3 hPa 0,0 l/m 0 min 0 min 0 W/m 15,8 km/h (3 Bft) 97,83 %
22.03.2018 02:20 3,3 C 3,3 C 2,2 C 82 % 0 lf 1021,2 hPa 0,0 l/m 0 min 0 min 0 W/m 13,5 km/h (3 Bft) 96,23 %
22.03.2018 02:22 3,3 C 3,3 C 2,2 C 82 % 0 lf 1021,2 hPa 0,0 l/m 0 min 0 min 0 W/m 13,5 km/h (3 Bft) 97,56 %
22.03.2018 02:24 3,3 C 3,3 C 2,2 C 82 % 0 lf 1021,2 hPa 0,0 l/m 0 min 0 min 0 W/m 15,8 km/h (3 Bft) 95,74 %
22.03.2018 02:26 3,3 C 3,3 C 2,2 C 82 % 0 lf 1021,1 hPa 0,0 l/m 0 min 0 min 0 W/m 13,5 km/h (3 Bft) 95,74 %
22.03.2018 02:28 3,3 C 3,3 C 2,2 C 82 % 0 lf 1021,1 hPa 0,0 l/m 0 min 0 min 0 W/m 15,8 km/h (3 Bft) 93,62 %
22.03.2018 02:30 3,3 C 3,3 C 2,2 C 82 % 0 lf 1021,1 hPa 0,0 l/m 0 min 0 min 0 W/m 15,8 km/h (3 Bft) 93,48 %
22.03.2018 02:32 3,3 C 3,3 C 2,2 C 82 % 0 lf 1021,0 hPa 0,0 l/m 0 min 0 min 0 W/m 13,5 km/h (3 Bft) 95,74 %
22.03.2018 02:34 3,3 C 3,3 C 2,2 C 82 % 0 lf 1021,0 hPa 0,0 l/m 0 min 0 min 0 W/m 11,3 km/h (2 Bft) 95,74 %
22.03.2018 02:36 3,3 C 3,3 C 2,2 C 82 % 0 lf 1021,0 hPa 0,0 l/m 0 min 0 min 0 W/m 15,8 km/h (3 Bft) 97,87 %
22.03.2018 02:38 3,4 C 3,3 C 2,2 C 82 % 0 lf 1021,0 hPa 0,0 l/m 0 min 0 min 0 W/m 20,3 km/h (4 Bft) 95,74 %
22.03.2018 02:40 3,4 C 3,3 C 2,2 C 82 % 0 lf 1021,0 hPa 0,0 l/m 0 min 0 min 0 W/m 18,0 km/h (3 Bft) 93,62 %
22.03.2018 02:42 3,4 C 3,3 C 2,2 C 82 % 0 lf 1020,9 hPa 0,0 l/m 0 min 0 min 0 W/m 18,0 km/h (3 Bft) 95,65 %
22.03.2018 02:44 3,4 C 3,3 C 2,2 C 82 % 0 lf 1020,9 hPa 0,0 l/m 0 min 0 min 0 W/m 18,0 km/h (3 Bft) 95,74 %
22.03.2018 02:46 3,4 C 3,3 C 2,2 C 82 % 0 lf 1020,8 hPa 0,0 l/m 0 min 0 min 0 W/m 20,3 km/h (4 Bft) 95,74 %
22.03.2018 02:48 3,4 C 3,3 C 2,2 C 82 % 0 lf 1020,8 hPa 0,0 l/m 0 min 0 min 0 W/m 15,8 km/h (3 Bft) 93,62 %
22.03.2018 02:50 3,4 C 3,3 C 2,2 C 82 % 0 lf 1020,7 hPa 0,0 l/m 0 min 0 min 0 W/m 18,0 km/h (3 Bft) 98,08 %
22.03.2018 02:52 3,4 C 3,3 C 2,2 C 82 % 0 lf 1020,7 hPa 0,0 l/m 0 min 0 min 0 W/m 20,3 km/h (4 Bft) 95,24 %
22.03.2018 02:54 3,4 C 3,3 C 2,2 C 82 % 0 lf 1020,7 hPa 0,0 l/m 0 min 0 min 0 W/m 18,0 km/h (3 Bft) 97,83 %
22.03.2018 02:56 3,4 C 3,3 C 2,2 C 82 % 0 lf 1020,6 hPa 0,0 l/m 0 min 0 min 0 W/m 20,3 km/h (4 Bft) 97,87 %
22.03.2018 02:58 3,4 C 3,3 C 2,2 C 82 % 0 lf 1020,6 hPa 0,0 l/m 0 min 0 min 0 W/m 15,8 km/h (3 Bft) 93,62 %
22.03.2018 03:00 3,4 C 3,3 C 2,2 C 82 % 0 lf 1020,6 hPa 0,0 l/m 0 min 0 min 0 W/m 20,3 km/h (4 Bft) 97,87 %
22.03.2018 03:02 3,4 C 3,3 C 2,2 C 82 % 0 lf 1020,6 hPa 0,0 l/m 0 min 0 min 0 W/m 20,3 km/h (4 Bft) 97,87 %
22.03.2018 03:04 3,5 C 3,3 C 2,2 C 82 % 0 lf 1020,6 hPa 0,0 l/m 0 min 0 min 0 W/m 15,8 km/h (3 Bft) 97,87 %
22.03.2018 03:06 3,4 C 3,3 C 2,2 C 82 % 0 lf 1020,5 hPa 0,0 l/m 0 min 0 min 0 W/m 15,8 km/h (3 Bft) 97,83 %
22.03.2018 03:08 3,4 C 3,3 C 2,2 C 82 % 0 lf 1020,5 hPa 0,0 l/m 0 min 0 min 0 W/m 15,8 km/h (3 Bft) 97,87 %
22.03.2018 03:10 3,4 C 3,3 C 2,2 C 82 % 0 lf 1020,5 hPa 0,0 l/m 0 min 0 min 0 W/m 24,8 km/h (4 Bft) 100,00 %
22.03.2018 03:12 3,4 C 3,3 C 2,2 C 82 % 0 lf 1020,5 hPa 0,0 l/m 0 min 0 min 0 W/m 22,5 km/h (4 Bft) 100,00 %
22.03.2018 03:14 3,4 C 3,3 C 2,2 C 82 % 0 lf 1020,4 hPa 0,0 l/m 0 min 0 min 0 W/m 24,8 km/h (4 Bft) 100,00 %
22.03.2018 03:16 3,5 C 3,3 C 2,2 C 82 % 0 lf 1020,4 hPa 0,0 l/m 0 min 0 min 0 W/m 22,5 km/h (4 Bft) 97,87 %
22.03.2018 03:18 3,5 C 3,3 C 2,2 C 82 % 0 lf 1020,4 hPa 0,0 l/m 0 min 0 min 0 W/m 24,8 km/h (4 Bft) 100,00 %
22.03.2018 03:20 3,5 C 3,3 C 2,2 C 82 % 0 lf 1020,4 hPa 0,0 l/m 0 min 0 min 0 W/m 22,5 km/h (4 Bft) 98,31 %
22.03.2018 03:22 3,5 C 3,3 C 2,2 C 82 % 0 lf 1020,4 hPa 0,0 l/m 0 min 0 min 0 W/m 22,5 km/h (4 Bft) 100,00 %
22.03.2018 03:24 3,5 C 3,3 C 2,2 C 82 % 3 lf 1020,4 hPa 0,0 l/m 0 min 0 min 0 W/m 24,8 km/h (4 Bft) 100,00 %
22.03.2018 03:26 3,5 C 3,3 C 2,2 C 82 % 2 lf 1020,2 hPa 0,0 l/m 0 min 0 min 0 W/m 27,0 km/h (4 Bft) 100,00 %
22.03.2018 03:28 3,5 C 3,3 C 2,2 C 83 % 2 lf 1020,2 hPa 0,0 l/m 0 min 0 min 0 W/m 18,0 km/h (3 Bft) 100,00 %
22.03.2018 03:30 3,5 C 3,3 C 2,2 C 83 % 1 lf 1020,2 hPa 0,0 l/m 0 min 0 min 0 W/m 15,8 km/h (3 Bft) 97,87 %
22.03.2018 03:32 3,5 C 3,3 C 2,2 C 83 % 0 lf 1020,3 hPa 0,0 l/m 0 min 0 min 0 W/m 20,3 km/h (4 Bft) 100,00 %
22.03.2018 03:34 3,5 C 3,3 C 2,2 C 83 % 0 lf 1020,2 hPa 0,0 l/m 0 min 0 min 0 W/m 24,8 km/h (4 Bft) 100,00 %
22.03.2018 03:36 3,5 C 3,3 C 2,2 C 83 % 0 lf 1020,1 hPa 0,0 l/m 0 min 0 min 0 W/m 20,3 km/h (4 Bft) 95,74 %
22.03.2018 03:38 3,5 C 3,3 C 2,2 C 83 % 0 lf 1020,1 hPa 0,0 l/m 0 min 0 min 0 W/m 15,8 km/h (3 Bft) 97,87 %
22.03.2018 03:40 3,5 C 3,3 C 2,2 C 83 % 0 lf 1020,1 hPa 0,0 l/m 0 min 0 min 0 W/m 18,0 km/h (3 Bft) 100,00 %
22.03.2018 03:42 3,5 C 3,3 C 2,2 C 83 % 0 lf 1020,1 hPa 0,0 l/m 0 min 0 min 0 W/m 20,3 km/h (4 Bft) 100,00 %
22.03.2018 03:44 3,5 C 3,3 C 2,2 C 83 % 0 lf 1020,1 hPa 0,0 l/m 0 min 0 min 0 W/m 22,5 km/h (4 Bft) 95,74 %
22.03.2018 03:46 3,5 C 3,3 C 2,2 C 83 % 0 lf 1020,0 hPa 0,0 l/m 0 min 0 min 0 W/m 18,0 km/h (3 Bft) 100,00 %
22.03.2018 03:48 3,5 C 3,3 C 2,2 C 83 % 0 lf 1020,0 hPa 0,0 l/m 0 min 0 min 0 W/m 20,3 km/h (4 Bft) 100,00 %
22.03.2018 03:50 3,5 C 3,3 C 2,2 C 84 % 0 lf 1019,9 hPa 0,0 l/m 0 min 0 min 0 W/m 22,5 km/h (4 Bft) 100,00 %
22.03.2018 03:52 3,5 C 3,3 C 2,2 C 83 % 0 lf 1019,9 hPa 0,0 l/m 0 min 0 min 0 W/m 27,0 km/h (4 Bft) 100,00 %
22.03.2018 03:54 3,5 C 3,3 C 2,2 C 84 % 0 lf 1019,8 hPa 0,0 l/m 0 min 0 min 0 W/m 20,3 km/h (4 Bft) 95,74 %
22.03.2018 03:56 3,5 C 3,3 C 2,2 C 84 % 0 lf 1019,7 hPa 0,0 l/m 0 min 0 min 0 W/m 18,0 km/h (3 Bft) 95,74 %
22.03.2018 03:58 3,5 C 3,3 C 2,2 C 84 % 0 lf 1019,7 hPa 0,0 l/m 0 min 0 min 0 W/m 20,3 km/h (4 Bft) 97,87 %
22.03.2018 04:00 3,5 C 3,3 C 2,2 C 84 % 0 lf 1019,7 hPa 0,0 l/m 0 min 0 min 0 W/m 20,3 km/h (4 Bft) 100,00 %
22.03.2018 04:02 3,5 C 3,3 C 2,2 C 84 % 0 lf 1019,7 hPa 0,0 l/m 0 min 0 min 0 W/m 13,5 km/h (3 Bft) 85,71 %
22.03.2018 04:07 3,4 C 3,3 C 2,2 C 84 % 0 lf 1019,6 hPa 0,0 l/m 0 min 0 min 0 W/m 22,5 km/h (4 Bft) 96,08 %
22.03.2018 04:08 3,4 C 3,3 C 2,2 C 84 % 0 lf 1019,6 hPa 0,0 l/m 0 min 0 min 0 W/m 15,8 km/h (3 Bft) 100,00 %
22.03.2018 04:10 3,4 C 3,3 C 2,2 C 84 % 0 lf 1019,6 hPa 0,0 l/m 0 min 0 min 0 W/m 15,8 km/h (3 Bft) 95,74 %
22.03.2018 04:12 3,4 C 3,3 C 2,2 C 84 % 0 lf 1019,5 hPa 0,0 l/m 0 min 0 min 0 W/m 15,8 km/h (3 Bft) 97,87 %
22.03.2018 04:14 3,4 C 3,3 C 2,2 C 85 % 0 lf 1019,5 hPa 0,0 l/m 0 min 0 min 0 W/m 13,5 km/h (3 Bft) 100,00 %
22.03.2018 04:16 3,4 C 3,3 C 2,2 C 85 % 0 lf 1019,4 hPa 0,0 l/m 0 min 0 min 0 W/m 22,5 km/h (4 Bft) 95,65 %
22.03.2018 04:18 3,4 C 3,3 C 2,2 C 85 % 0 lf 1019,4 hPa 0,0 l/m 0 min 0 min 0 W/m 18,0 km/h (3 Bft) 97,87 %
22.03.2018 04:20 3,4 C 3,3 C 2,2 C 85 % 0 lf 1019,3 hPa 0,0 l/m 0 min 0 min 0 W/m 20,3 km/h (4 Bft) 96,23 %
22.03.2018 04:22 3,4 C 3,3 C 2,2 C 85 % 0 lf 1019,3 hPa 0,0 l/m 0 min 0 min 0 W/m 20,3 km/h (4 Bft) 95,12 %
22.03.2018 04:24 3,4 C 3,3 C 2,2 C 85 % 0 lf 1019,3 hPa 0,0 l/m 0 min 0 min 0 W/m 18,0 km/h (3 Bft) 97,87 %
22.03.2018 04:26 3,4 C 3,3 C 2,2 C 85 % 0 lf 1019,2 hPa 0,0 l/m 0 min 0 min 0 W/m 18,0 km/h (3 Bft) 95,65 %
22.03.2018 04:28 3,4 C 3,3 C 2,2 C 85 % 0 lf 1019,2 hPa 0,0 l/m 0 min 0 min 0 W/m 24,8 km/h (4 Bft) 93,62 %
22.03.2018 04:30 3,4 C 3,3 C 2,2 C 85 % 0 lf 1019,1 hPa 0,0 l/m 0 min 0 min 0 W/m 18,0 km/h (3 Bft) 94,12 %
22.03.2018 04:32 3,4 C 3,3 C 2,2 C 85 % 0 lf 1019,1 hPa 0,0 l/m 0 min 0 min 0 W/m 15,8 km/h (3 Bft) 91,49 %
22.03.2018 04:34 3,4 C 3,3 C 2,2 C 85 % 1 lf 1019,1 hPa 0,0 l/m 0 min 0 min 0 W/m 18,0 km/h (3 Bft) 93,62 %
22.03.2018 04:36 3,4 C 3,3 C 2,2 C 85 % 1 lf 1018,9 hPa 0,0 l/m 0 min 0 min 0 W/m 20,3 km/h (4 Bft) 93,62 %
22.03.2018 04:38 3,4 C 3,3 C 2,2 C 85 % 1 lf 1018,9 hPa 0,0 l/m 0 min 0 min 0 W/m 22,5 km/h (4 Bft) 93,48 %
22.03.2018 04:40 3,4 C 3,3 C 2,2 C 86 % 1 lf 1018,8 hPa 0,0 l/m 0 min 0 min 0 W/m 24,8 km/h (4 Bft) 93,62 %
22.03.2018 04:42 3,4 C 3,3 C 2,2 C 86 % 1 lf 1018,7 hPa 0,0 l/m 0 min 0 min 0 W/m 20,3 km/h (4 Bft) 93,62 %
22.03.2018 04:44 3,4 C 3,3 C 1,7 C 86 % 1 lf 1018,7 hPa 0,0 l/m 0 min 0 min 0 W/m 13,5 km/h (3 Bft) 93,62 %
22.03.2018 04:46 3,4 C 3,3 C 1,7 C 86 % 0 lf 1018,8 hPa 0,0 l/m 0 min 0 min 0 W/m 20,3 km/h (4 Bft) 93,62 %
22.03.2018 04:48 3,4 C 3,3 C 1,7 C 86 % 0 lf 1018,8 hPa 0,0 l/m 0 min 0 min 0 W/m 13,5 km/h (3 Bft) 93,62 %
22.03.2018 04:50 3,4 C 3,3 C 1,7 C 86 % 1 lf 1018,9 hPa 0,0 l/m 0 min 0 min 0 W/m 15,8 km/h (3 Bft) 92,31 %
22.03.2018 04:52 3,4 C 3,3 C 1,7 C 86 % 0 lf 1018,9 hPa 0,0 l/m 0 min 0 min 0 W/m 13,5 km/h (3 Bft) 95,12 %
22.03.2018 04:54 3,4 C 3,3 C 2,2 C 86 % 0 lf 1018,9 hPa 0,0 l/m 0 min 0 min 0 W/m 22,5 km/h (4 Bft) 91,49 %
22.03.2018 04:56 3,4 C 3,3 C 2,2 C 86 % 0 lf 1019,0 hPa 0,0 l/m 0 min 0 min 0 W/m 18,0 km/h (3 Bft) 95,74 %
22.03.2018 04:58 3,4 C 3,3 C 2,2 C 86 % 0 lf 1018,9 hPa 0,0 l/m 0 min 0 min 0 W/m 18,0 km/h (3 Bft) 91,49 %
22.03.2018 05:00 3,4 C 3,3 C 2,2 C 86 % 0 lf 1018,8 hPa 0,0 l/m 0 min 0 min 0 W/m 11,3 km/h (2 Bft) 91,49 %
22.03.2018 05:02 3,4 C 3,3 C 2,2 C 86 % 0 lf 1018,9 hPa 0,0 l/m 0 min 0 min 0 W/m 20,3 km/h (4 Bft) 93,48 %
22.03.2018 05:04 3,4 C 3,3 C 2,2 C 86 % 0 lf 1018,9 hPa 0,0 l/m 0 min 0 min 0 W/m 13,5 km/h (3 Bft) 93,62 %
22.03.2018 05:06 3,4 C 3,3 C 2,2 C 86 % 0 lf 1018,9 hPa 0,0 l/m 0 min 0 min 0 W/m 18,0 km/h (3 Bft) 97,87 %
22.03.2018 05:08 3,4 C 3,3 C 2,2 C 86 % 0 lf 1018,9 hPa 0,0 l/m 0 min 0 min 0 W/m 15,8 km/h (3 Bft) 97,87 %
22.03.2018 05:10 3,4 C 3,3 C 2,2 C 87 % 0 lf 1018,8 hPa 0,0 l/m 0 min 0 min 0 W/m 13,5 km/h (3 Bft) 91,49 %
22.03.2018 05:12 3,4 C 3,3 C 2,2 C 87 % 0 lf 1018,7 hPa 0,0 l/m 0 min 0 min 0 W/m 22,5 km/h (4 Bft) 97,87 %
22.03.2018 05:14 3,4 C 3,3 C 2,2 C 87 % 0 lf 1018,6 hPa 0,0 l/m 0 min 0 min 0 W/m 18,0 km/h (3 Bft) 97,83 %
22.03.2018 05:16 3,4 C 3,3 C 2,2 C 87 % 0 lf 1018,6 hPa 0,0 l/m 0 min 0 min 0 W/m 15,8 km/h (3 Bft) 95,74 %
22.03.2018 05:18 3,4 C 3,3 C 2,2 C 87 % 0 lf 1018,5 hPa 0,0 l/m 0 min 0 min 0 W/m 18,0 km/h (3 Bft) 95,74 %
22.03.2018 05:20 3,4 C 3,3 C 2,2 C 87 % 0 lf 1018,4 hPa 0,0 l/m 0 min 0 min 0 W/m 22,5 km/h (4 Bft) 96,23 %
22.03.2018 05:22 3,4 C 3,3 C 2,2 C 87 % 0 lf 1018,4 hPa 0,0 l/m 0 min 0 min 0 W/m 15,8 km/h (3 Bft) 97,56 %
22.03.2018 05:24 3,4 C 3,3 C 2,2 C 87 % 0 lf 1018,4 hPa 0,0 l/m 0 min 0 min 0 W/m 15,8 km/h (3 Bft) 97,87 %
22.03.2018 05:26 3,4 C 3,3 C 2,2 C 87 % 0 lf 1018,2 hPa 0,0 l/m 0 min 0 min 0 W/m 13,5 km/h (3 Bft) 95,65 %
22.03.2018 05:28 3,4 C 3,3 C 2,2 C 87 % 0 lf 1018,1 hPa 0,0 l/m 0 min 0 min 0 W/m 20,3 km/h (4 Bft) 97,87 %
22.03.2018 05:30 3,4 C 3,3 C 2,2 C 87 % 0 lf 1018,1 hPa 0,0 l/m 0 min 0 min 0 W/m 24,8 km/h (4 Bft) 97,87 %
22.03.2018 05:32 3,4 C 3,3 C 2,2 C 87 % 0 lf 1018,1 hPa 0,0 l/m 0 min 0 min 0 W/m 27,0 km/h (4 Bft) 95,74 %
22.03.2018 05:34 3,4 C 3,3 C 2,2 C 87 % 0 lf 1018,1 hPa 0,0 l/m 0 min 0 min 0 W/m 15,8 km/h (3 Bft) 91,49 %
22.03.2018 05:35 3,4 C 3,3 C 2,2 C 88 % 0 lf 1018,0 hPa 0,0 l/m 0 min 0 min 0 W/m 27,0 km/h (4 Bft) 98,25 %
22.03.2018 05:42 3,4 C 3,3 C 2,2 C 88 % 0 lf 1018,1 hPa 0,0 l/m 0 min 0 min 0 W/m 20,3 km/h (4 Bft) 100,00 %
22.03.2018 05:44 3,4 C 3,3 C 2,2 C 88 % 0 lf 1018,0 hPa 0,0 l/m 0 min 0 min 0 W/m 18,0 km/h (3 Bft) 97,14 %
22.03.2018 05:46 3,5 C 3,3 C 2,2 C 88 % 0 lf 1018,0 hPa 0,0 l/m 0 min 0 min 0 W/m 15,8 km/h (3 Bft) 100,00 %
22.03.2018 05:48 3,4 C 3,3 C 2,2 C 88 % 0 lf 1018,0 hPa 0,0 l/m 0 min 0 min 0 W/m 15,8 km/h (3 Bft) 97,87 %
22.03.2018 05:50 3,5 C 3,3 C 2,2 C 88 % 0 lf 1017,8 hPa 0,0 l/m 0 min 0 min 0 W/m 18,0 km/h (3 Bft) 96,61 %
22.03.2018 05:52 3,5 C 3,3 C 2,2 C 88 % 0 lf 1017,9 hPa 0,0 l/m 0 min 0 min 0 W/m 20,3 km/h (4 Bft) 95,65 %
22.03.2018 05:57 3,4 C 3,3 C 2,2 C 88 % 0 lf 1017,9 hPa 0,0 l/m 0 min 0 min 0 W/m 18,0 km/h (3 Bft) 97,18 %
22.03.2018 05:58 3,5 C 3,3 C 2,2 C 88 % 0 lf 1017,9 hPa 0,0 l/m 0 min 0 min 0 W/m 18,0 km/h (3 Bft) 100,00 %
22.03.2018 06:00 3,4 C 3,3 C 2,2 C 88 % 0 lf 1017,8 hPa 0,0 l/m 0 min 0 min 0 W/m 20,3 km/h (4 Bft) 97,87 %
22.03.2018 06:02 3,4 C 3,3 C 2,2 C 88 % 0 lf 1017,8 hPa 0,0 l/m 0 min 0 min 0 W/m 20,3 km/h (4 Bft) 97,87 %
22.03.2018 06:04 3,5 C 3,3 C 2,2 C 88 % 0 lf 1017,7 hPa 0,0 l/m 0 min 0 min 0 W/m 24,8 km/h (4 Bft) 100,00 %
22.03.2018 06:08 3,5 C 3,3 C 2,2 C 88 % 2 lf 1017,7 hPa 0,0 l/m 0 min 0 min 0 W/m 18,0 km/h (3 Bft) 98,92 %
22.03.2018 06:10 3,5 C 3,3 C 2,2 C 88 % 1 lf 1017,8 hPa 0,0 l/m 0 min 0 min 0 W/m 22,5 km/h (4 Bft) 100,00 %
22.03.2018 06:12 3,4 C 3,3 C 2,2 C 88 % 3 lf 1017,7 hPa 0,0 l/m 0 min 0 min 0 W/m 22,5 km/h (4 Bft) 100,00 %
22.03.2018 06:14 3,5 C 3,3 C 2,2 C 88 % 2 lf 1017,6 hPa 0,0 l/m 0 min 0 min 0 W/m 22,5 km/h (4 Bft) 100,00 %
22.03.2018 06:16 3,5 C 3,3 C 2,2 C 88 % 14 lf 1017,7 hPa 0,0 l/m 0 min 2 min 0 W/m 15,8 km/h (3 Bft) 100,00 %
22.03.2018 06:18 3,5 C 3,3 C 1,7 C 88 % 15 lf 1017,7 hPa 0,0 l/m 0 min 2 min 0 W/m 20,3 km/h (4 Bft) 95,74 %
22.03.2018 06:20 3,5 C 3,3 C 1,7 C 88 % 15 lf 1017,7 hPa 0,0 l/m 0 min 2 min 0 W/m 20,3 km/h (4 Bft) 98,28 %
22.03.2018 06:22 3,5 C 3,3 C 1,7 C 89 % 15 lf 1017,6 hPa 0,0 l/m 0 min 2 min 0 W/m 18,0 km/h (3 Bft) 94,29 %
22.03.2018 06:24 3,5 C 3,3 C 1,7 C 89 % 15 lf 1017,6 hPa 0,0 l/m 0 min 2 min 0 W/m 24,8 km/h (4 Bft) 97,87 %
22.03.2018 06:26 3,5 C 2,8 C 1,7 C 89 % 15 lf 1017,6 hPa 0,0 l/m 0 min 2 min 0 W/m 18,0 km/h (3 Bft) 97,87 %
22.03.2018 06:28 3,5 C 2,8 C 1,7 C 89 % 15 lf 1017,5 hPa 0,0 l/m 0 min 2 min 0 W/m 15,8 km/h (3 Bft) 97,87 %
22.03.2018 06:30 3,5 C 2,8 C 1,7 C 89 % 15 lf 1017,5 hPa 0,0 l/m 0 min 2 min 0 W/m 18,0 km/h (3 Bft) 95,74 %
22.03.2018 06:32 3,5 C 2,8 C 1,7 C 89 % 15 lf 1017,4 hPa 0,0 l/m 0 min 2 min 0 W/m 22,5 km/h (4 Bft) 97,83 %
22.03.2018 06:34 3,4 C 2,8 C 1,7 C 89 % 15 lf 1017,3 hPa 0,0 l/m 0 min 2 min 0 W/m 18,0 km/h (3 Bft) 97,87 %
22.03.2018 06:36 3,4 C 2,8 C 1,7 C 89 % 15 lf 1017,2 hPa 0,0 l/m 0 min 2 min 0 W/m 15,8 km/h (3 Bft) 97,87 %
22.03.2018 06:38 3,4 C 2,8 C 1,7 C 89 % 15 lf 1017,2 hPa 0,0 l/m 0 min 2 min 0 W/m 24,8 km/h (4 Bft) 95,74 %
22.03.2018 06:40 3,4 C 2,8 C 1,7 C 90 % 15 lf 1017,1 hPa 0,0 l/m 0 min 2 min 0 W/m 20,3 km/h (4 Bft) 97,87 %
22.03.2018 06:42 3,4 C 2,8 C 1,7 C 90 % 15 lf 1017,1 hPa 0,2 l/m 0 min 2 min 0 W/m 29,3 km/h (5 Bft) 97,87 %
22.03.2018 06:44 3,4 C 2,8 C 1,7 C 90 % 15 lf 1017,1 hPa 0,0 l/m 0 min 2 min 0 W/m 24,8 km/h (4 Bft) 97,83 %
22.03.2018 06:46 3,4 C 2,8 C 1,7 C 90 % 15 lf 1017,1 hPa 0,0 l/m 0 min 2 min 0 W/m 27,0 km/h (4 Bft) 95,74 %
22.03.2018 06:48 3,4 C 2,8 C 1,1 C 90 % 15 lf 1017,1 hPa 0,0 l/m 0 min 2 min 0 W/m 24,8 km/h (4 Bft) 97,87 %
22.03.2018 06:50 3,4 C 2,8 C 1,1 C 90 % 15 lf 1017,2 hPa 0,2 l/m 0 min 2 min 0 W/m 22,5 km/h (4 Bft) 97,87 %
22.03.2018 06:52 3,3 C 2,2 C 1,1 C 90 % 15 lf 1017,2 hPa 0,0 l/m 0 min 2 min 0 W/m 36,0 km/h (5 Bft) 97,87 %
22.03.2018 06:54 3,3 C 2,2 C 1,1 C 90 % 15 lf 1017,3 hPa 0,0 l/m 0 min 2 min 0 W/m 29,3 km/h (5 Bft) 95,65 %
22.03.2018 06:56 3,3 C 2,2 C 1,1 C 90 % 15 lf 1017,3 hPa 0,0 l/m 0 min 2 min 0 W/m 29,3 km/h (5 Bft) 97,87 %
22.03.2018 06:58 3,3 C 2,2 C 1,1 C 91 % 15 lf 1017,2 hPa 0,2 l/m 0 min 2 min 0 W/m 27,0 km/h (4 Bft) 93,62 %
22.03.2018 07:00 3,3 C 2,2 C 1,1 C 91 % 15 lf 1017,2 hPa 0,2 l/m 0 min 2 min 0 W/m 31,5 km/h (5 Bft) 97,87 %
22.03.2018 07:02 3,2 C 2,2 C 1,1 C 91 % 15 lf 1017,3 hPa 0,0 l/m 0 min 2 min 0 W/m 29,3 km/h (5 Bft) 93,62 %
22.03.2018 07:04 3,2 C 2,2 C 1,1 C 91 % 15 lf 1017,2 hPa 0,2 l/m 0 min 2 min 0 W/m 31,5 km/h (5 Bft) 97,87 %
22.03.2018 07:06 3,2 C 2,2 C 1,1 C 91 % 15 lf 1017,2 hPa 0,0 l/m 0 min 2 min 0 W/m 36,0 km/h (5 Bft) 100,00 %
22.03.2018 07:08 3,2 C 2,2 C 1,1 C 91 % 15 lf 1017,2 hPa 0,2 l/m 0 min 2 min 4 W/m 27,0 km/h (4 Bft) 100,00 %
22.03.2018 07:10 3,1 C 2,2 C 1,1 C 91 % 15 lf 1017,2 hPa 0,0 l/m 0 min 2 min 5 W/m 27,0 km/h (4 Bft) 97,87 %
22.03.2018 07:12 3,1 C 2,2 C 1,1 C 91 % 15 lf 1017,2 hPa 0,0 l/m 0 min 2 min 5 W/m 29,3 km/h (5 Bft) 97,87 %
22.03.2018 07:14 3,1 C 2,2 C 1,1 C 91 % 15 lf 1017,3 hPa 0,0 l/m 0 min 2 min 5 W/m 31,5 km/h (5 Bft) 100,00 %
22.03.2018 07:16 3,1 C 2,2 C 1,1 C 92 % 15 lf 1017,1 hPa 0,0 l/m 0 min 2 min 6 W/m 31,5 km/h (5 Bft) 95,74 %
22.03.2018 07:18 3,0 C 2,2 C 1,1 C 92 % 15 lf 1017,1 hPa 0,0 l/m 0 min 2 min 5 W/m 24,8 km/h (4 Bft) 95,65 %
22.03.2018 07:20 2,9 C 2,2 C 1,1 C 92 % 15 lf 1017,1 hPa 0,0 l/m 0 min 2 min 6 W/m 31,5 km/h (5 Bft) 97,87 %
22.03.2018 07:22 2,9 C 2,2 C 1,1 C 92 % 15 lf 1017,0 hPa 0,0 l/m 0 min 2 min 7 W/m 29,3 km/h (5 Bft) 97,87 %
22.03.2018 07:24 2,9 C 2,2 C 1,1 C 92 % 15 lf 1017,0 hPa 0,0 l/m 0 min 2 min 7 W/m 29,3 km/h (5 Bft) 97,87 %
22.03.2018 07:26 2,9 C 2,2 C 1,1 C 92 % 15 lf 1017,0 hPa 0,0 l/m 0 min 0 min 7 W/m 27,0 km/h (4 Bft) 93,62 %
22.03.2018 07:28 2,9 C 2,2 C 1,1 C 92 % 15 lf 1017,0 hPa 0,0 l/m 0 min 2 min 7 W/m 29,3 km/h (5 Bft) 97,87 %
22.03.2018 07:30 2,9 C 2,2 C 1,1 C 92 % 15 lf 1017,0 hPa 0,0 l/m 0 min 2 min 8 W/m 22,5 km/h (4 Bft) 97,83 %
22.03.2018 07:32 2,9 C 2,2 C 1,1 C 92 % 15 lf 1017,0 hPa 0,0 l/m 0 min 0 min 9 W/m 24,8 km/h (4 Bft) 91,49 %
22.03.2018 07:34 2,9 C 2,2 C 1,1 C 92 % 15 lf 1016,9 hPa 0,0 l/m 0 min 0 min 11 W/m 24,8 km/h (4 Bft) 93,62 %
22.03.2018 07:36 2,9 C 2,2 C 1,1 C 92 % 15 lf 1016,9 hPa 0,0 l/m 0 min 2 min 11 W/m 22,5 km/h (4 Bft) 91,49 %
22.03.2018 07:38 2,9 C 2,2 C 1,7 C 93 % 15 lf 1016,9 hPa 0,0 l/m 0 min 0 min 12 W/m 24,8 km/h (4 Bft) 91,49 %
22.03.2018 07:40 2,8 C 2,2 C 1,7 C 93 % 15 lf 1016,9 hPa 0,0 l/m 0 min 2 min 12 W/m 31,5 km/h (5 Bft) 91,49 %
22.03.2018 07:42 2,8 C 2,2 C 1,7 C 93 % 15 lf 1016,9 hPa 0,0 l/m 0 min 0 min 14 W/m 24,8 km/h (4 Bft) 93,48 %
22.03.2018 07:44 2,8 C 2,2 C 1,7 C 93 % 15 lf 1016,9 hPa 0,2 l/m 0 min 0 min 16 W/m 24,8 km/h (4 Bft) 93,62 %
22.03.2018 07:46 2,8 C 2,2 C 1,7 C 93 % 15 lf 1016,7 hPa 0,0 l/m 0 min 2 min 17 W/m 29,3 km/h (5 Bft) 93,62 %
22.03.2018 07:48 2,8 C 2,2 C 1,7 C 93 % 15 lf 1016,7 hPa 0,0 l/m 0 min 0 min 17 W/m 27,0 km/h (4 Bft) 93,62 %
22.03.2018 07:50 2,8 C 2,2 C 1,7 C 93 % 15 lf 1016,6 hPa 0,0 l/m 0 min 2 min 19 W/m 31,5 km/h (5 Bft) 91,49 %
22.03.2018 07:52 2,8 C 2,2 C 1,7 C 93 % 15 lf 1016,6 hPa 0,0 l/m 0 min 2 min 19 W/m 20,3 km/h (4 Bft) 91,30 %
22.03.2018 07:54 2,8 C 2,2 C 1,7 C 93 % 15 lf 1016,6 hPa 0,0 l/m 0 min 2 min 20 W/m 18,0 km/h (3 Bft) 93,62 %
22.03.2018 07:56 2,8 C 2,2 C 1,7 C 94 % 15 lf 1016,5 hPa 0,0 l/m 0 min 0 min 20 W/m 22,5 km/h (4 Bft) 91,49 %
22.03.2018 07:58 2,8 C 2,2 C 1,7 C 94 % 15 lf 1016,5 hPa 0,0 l/m 0 min 0 min 21 W/m 24,8 km/h (4 Bft) 93,62 %
22.03.2018 08:00 2,8 C 2,2 C 1,7 C 94 % 15 lf 1016,5 hPa 0,0 l/m 0 min 2 min 20 W/m 27,0 km/h (4 Bft) 91,49 %
22.03.2018 08:02 2,8 C 2,2 C 1,7 C 94 % 15 lf 1016,5 hPa 0,0 l/m 0 min 2 min 19 W/m 24,8 km/h (4 Bft) 95,74 %
22.03.2018 08:04 2,8 C 2,2 C 1,7 C 94 % 15 lf 1016,5 hPa 0,0 l/m 0 min 2 min 18 W/m 27,0 km/h (4 Bft) 95,74 %
22.03.2018 08:06 2,8 C 2,2 C 1,7 C 94 % 15 lf 1016,5 hPa 0,0 l/m 0 min 0 min 18 W/m 31,5 km/h (5 Bft) 93,48 %
22.03.2018 08:08 2,8 C 2,2 C 1,7 C 94 % 15 lf 1016,5 hPa 0,0 l/m 0 min 2 min 20 W/m 40,6 km/h (6 Bft) 89,36 %
22.03.2018 08:10 2,8 C 2,2 C 1,7 C 94 % 15 lf 1016,5 hPa 0,0 l/m 0 min 2 min 24 W/m 36,0 km/h (5 Bft) 95,74 %
22.03.2018 08:12 2,7 C 2,2 C 1,7 C 94 % 15 lf 1016,4 hPa 0,0 l/m 0 min 2 min 28 W/m 33,8 km/h (5 Bft) 95,74 %
22.03.2018 08:14 2,7 C 2,2 C 1,7 C 94 % 15 lf 1016,4 hPa 0,0 l/m 0 min 2 min 26 W/m 24,8 km/h (4 Bft) 89,36 %
22.03.2018 08:16 2,7 C 2,2 C 1,7 C 94 % 15 lf 1016,4 hPa 0,0 l/m 0 min 0 min 24 W/m 20,3 km/h (4 Bft) 95,65 %
22.03.2018 08:18 2,7 C 2,2 C 1,7 C 94 % 15 lf 1016,3 hPa 0,0 l/m 0 min 2 min 26 W/m 36,0 km/h (5 Bft) 91,49 %
22.03.2018 08:20 2,7 C 2,2 C 1,7 C 94 % 15 lf 1016,4 hPa 0,0 l/m 0 min 2 min 26 W/m 29,3 km/h (5 Bft) 95,74 %
22.03.2018 08:22 2,7 C 2,2 C 1,7 C 94 % 15 lf 1016,4 hPa 0,0 l/m 0 min 2 min 21 W/m 33,8 km/h (5 Bft) 95,74 %
22.03.2018 08:24 2,7 C 2,2 C 1,7 C 95 % 15 lf 1016,4 hPa 0,0 l/m 0 min 2 min 19 W/m 29,3 km/h (5 Bft) 95,74 %
22.03.2018 08:26 2,7 C 2,2 C 1,7 C 95 % 15 lf 1016,3 hPa 0,0 l/m 0 min 2 min 24 W/m 29,3 km/h (5 Bft) 95,74 %
22.03.2018 08:28 2,7 C 2,2 C 1,7 C 95 % 15 lf 1016,3 hPa 0,0 l/m 0 min 2 min 30 W/m 33,8 km/h (5 Bft) 95,65 %
22.03.2018 08:30 2,7 C 2,2 C 1,7 C 95 % 15 lf 1016,2 hPa 0,0 l/m 0 min 2 min 28 W/m 38,3 km/h (5 Bft) 93,62 %
22.03.2018 08:32 2,7 C 2,2 C 1,7 C 95 % 15 lf 1016,1 hPa 0,0 l/m 0 min 2 min 22 W/m 29,3 km/h (5 Bft) 93,62 %
22.03.2018 08:34 2,7 C 2,2 C 1,7 C 95 % 15 lf 1016,2 hPa 0,0 l/m 0 min 2 min 22 W/m 31,5 km/h (5 Bft) 95,74 %
22.03.2018 08:36 2,7 C 2,2 C 1,7 C 95 % 15 lf 1016,2 hPa 0,0 l/m 0 min 2 min 27 W/m 31,5 km/h (5 Bft) 95,74 %
22.03.2018 08:38 2,7 C 2,2 C 1,7 C 95 % 15 lf 1016,2 hPa 0,0 l/m 0 min 2 min 39 W/m 24,8 km/h (4 Bft) 100,00 %
22.03.2018 08:40 2,7 C 2,8 C 1,7 C 95 % 15 lf 1016,1 hPa 0,0 l/m 0 min 2 min 41 W/m 31,5 km/h (5 Bft) 97,83 %
22.03.2018 08:42 2,7 C 2,8 C 1,7 C 95 % 15 lf 1016,1 hPa 0,0 l/m 0 min 2 min 38 W/m 24,8 km/h (4 Bft) 97,87 %
22.03.2018 08:44 2,8 C 2,8 C 1,7 C 95 % 15 lf 1016,1 hPa 0,0 l/m 0 min 2 min 28 W/m 36,0 km/h (5 Bft) 97,87 %
22.03.2018 08:46 2,8 C 2,8 C 1,7 C 95 % 15 lf 1016,1 hPa 0,0 l/m 0 min 2 min 23 W/m 31,5 km/h (5 Bft) 97,87 %
22.03.2018 08:48 2,8 C 2,8 C 1,7 C 95 % 15 lf 1016,1 hPa 0,0 l/m 0 min 2 min 32 W/m 31,5 km/h (5 Bft) 97,87 %
22.03.2018 08:50 2,8 C 2,8 C 1,7 C 95 % 15 lf 1016,0 hPa 0,0 l/m 0 min 0 min 42 W/m 31,5 km/h (5 Bft) 95,74 %
22.03.2018 08:52 2,8 C 2,8 C 1,7 C 95 % 15 lf 1016,0 hPa 0,0 l/m 0 min 0 min 38 W/m 27,0 km/h (4 Bft) 95,65 %
22.03.2018 08:54 2,9 C 2,8 C 2,2 C 95 % 15 lf 1015,9 hPa 0,0 l/m 0 min 0 min 50 W/m 29,3 km/h (5 Bft) 100,00 %
22.03.2018 08:56 2,9 C 2,8 C 2,2 C 95 % 15 lf 1015,8 hPa 0,0 l/m 0 min 0 min 51 W/m 24,8 km/h (4 Bft) 97,87 %
22.03.2018 08:58 2,9 C 2,8 C 2,2 C 95 % 15 lf 1015,8 hPa 0,0 l/m 0 min 0 min 40 W/m 36,0 km/h (5 Bft) 97,87 %
22.03.2018 09:00 2,9 C 2,8 C 2,2 C 95 % 15 lf 1015,8 hPa 0,0 l/m 0 min 0 min 33 W/m 31,5 km/h (5 Bft) 95,74 %
22.03.2018 09:02 2,9 C 2,8 C 2,2 C 95 % 15 lf 1015,8 hPa 0,0 l/m 0 min 2 min 41 W/m 27,0 km/h (4 Bft) 100,00 %
22.03.2018 09:04 2,9 C 2,8 C 2,2 C 95 % 15 lf 1015,8 hPa 0,0 l/m 0 min 2 min 38 W/m 31,5 km/h (5 Bft) 93,48 %
22.03.2018 09:08 3,0 C 2,8 C 2,2 C 96 % 15 lf 1015,8 hPa 0,0 l/m 0 min 4 min 30 W/m 33,8 km/h (5 Bft) 97,87 %
22.03.2018 09:10 3,0 C 2,8 C 2,2 C 96 % 15 lf 1015,8 hPa 0,0 l/m 0 min 2 min 35 W/m 38,3 km/h (5 Bft) 100,00 %
22.03.2018 09:12 3,0 C 2,8 C 2,2 C 96 % 15 lf 1015,8 hPa 0,0 l/m 0 min 2 min 40 W/m 27,0 km/h (4 Bft) 97,87 %
22.03.2018 09:14 3,0 C 2,8 C 2,2 C 96 % 15 lf 1015,8 hPa 0,0 l/m 0 min 2 min 39 W/m 36,0 km/h (5 Bft) 97,87 %
22.03.2018 09:16 3,1 C 2,8 C 2,2 C 96 % 15 lf 1015,8 hPa 0,0 l/m 0 min 2 min 32 W/m 33,8 km/h (5 Bft) 97,83 %
22.03.2018 09:18 3,1 C 2,8 C 2,2 C 96 % 15 lf 1015,8 hPa 0,0 l/m 0 min 2 min 30 W/m 36,0 km/h (5 Bft) 100,00 %
22.03.2018 09:20 3,1 C 2,8 C 2,2 C 96 % 15 lf 1015,7 hPa 0,0 l/m 0 min 2 min 33 W/m 40,6 km/h (6 Bft) 100,00 %
22.03.2018 09:22 3,1 C 2,8 C 2,2 C 96 % 15 lf 1015,7 hPa 0,0 l/m 0 min 2 min 39 W/m 33,8 km/h (5 Bft) 100,00 %
22.03.2018 09:24 3,1 C 2,8 C 2,2 C 96 % 15 lf 1015,7 hPa 0,0 l/m 0 min 2 min 39 W/m 29,3 km/h (5 Bft) 100,00 %
22.03.2018 09:26 3,1 C 2,8 C 2,2 C 96 % 15 lf 1015,7 hPa 0,0 l/m 0 min 2 min 33 W/m 31,5 km/h (5 Bft) 100,00 %
22.03.2018 09:28 3,1 C 2,8 C 2,2 C 96 % 15 lf 1015,8 hPa 0,0 l/m 0 min 2 min 28 W/m 24,8 km/h (4 Bft) 100,00 %
22.03.2018 09:30 3,1 C 2,8 C 2,2 C 96 % 15 lf 1015,7 hPa 0,0 l/m 0 min 0 min 31 W/m 29,3 km/h (5 Bft) 97,87 %
22.03.2018 09:32 3,1 C 2,8 C 2,2 C 96 % 15 lf 1015,7 hPa 0,0 l/m 0 min 2 min 36 W/m 36,0 km/h (5 Bft) 100,00 %
22.03.2018 09:34 3,1 C 2,8 C 2,2 C 96 % 15 lf 1015,7 hPa 0,0 l/m 0 min 2 min 39 W/m 22,5 km/h (4 Bft) 97,87 %
22.03.2018 09:36 3,1 C 2,8 C 2,2 C 96 % 15 lf 1015,6 hPa 0,0 l/m 0 min 0 min 35 W/m 24,8 km/h (4 Bft) 100,00 %
22.03.2018 09:38 3,1 C 2,8 C 2,2 C 96 % 15 lf 1015,7 hPa 0,0 l/m 0 min 0 min 33 W/m 33,8 km/h (5 Bft) 100,00 %
22.03.2018 09:40 3,1 C 2,8 C 2,2 C 96 % 15 lf 1015,6 hPa 0,0 l/m 0 min 2 min 33 W/m 31,5 km/h (5 Bft) 100,00 %
22.03.2018 09:42 3,1 C 2,8 C 2,2 C 96 % 15 lf 1015,5 hPa 0,0 l/m 0 min 2 min 43 W/m 33,8 km/h (5 Bft) 100,00 %
22.03.2018 09:44 3,1 C 3,3 C 2,2 C 96 % 15 lf 1015,5 hPa 0,0 l/m 0 min 2 min 57 W/m 31,5 km/h (5 Bft) 97,87 %
22.03.2018 09:46 3,2 C 3,3 C 2,2 C 96 % 15 lf 1015,4 hPa 0,0 l/m 0 min 2 min 58 W/m 33,8 km/h (5 Bft) 97,87 %
22.03.2018 09:48 3,2 C 3,3 C 2,2 C 96 % 15 lf 1015,5 hPa 0,0 l/m 0 min 2 min 60 W/m 27,0 km/h (4 Bft) 100,00 %
22.03.2018 09:50 3,2 C 3,3 C 2,2 C 96 % 15 lf 1015,5 hPa 0,0 l/m 0 min 0 min 39 W/m 31,5 km/h (5 Bft) 100,00 %
22.03.2018 09:52 3,2 C 3,3 C 2,2 C 96 % 15 lf 1015,5 hPa 0,0 l/m 0 min 0 min 31 W/m 29,3 km/h (5 Bft) 100,00 %
22.03.2018 09:54 3,2 C 3,3 C 2,2 C 96 % 15 lf 1015,5 hPa 0,0 l/m 0 min 0 min 41 W/m 31,5 km/h (5 Bft) 100,00 %
22.03.2018 09:56 3,2 C 3,3 C 2,2 C 96 % 15 lf 1015,4 hPa 0,0 l/m 0 min 0 min 49 W/m 22,5 km/h (4 Bft) 97,87 %
22.03.2018 09:58 3,3 C 3,3 C 2,2 C 96 % 15 lf 1015,4 hPa 0,0 l/m 0 min 0 min 57 W/m 31,5 km/h (5 Bft) 97,87 %
22.03.2018 10:00 3,3 C 3,3 C 2,2 C 96 % 15 lf 1015,4 hPa 0,0 l/m 0 min 0 min 34 W/m 27,0 km/h (4 Bft) 100,00 %
22.03.2018 10:02 3,3 C 3,3 C 2,2 C 96 % 15 lf 1015,3 hPa 0,0 l/m 0 min 0 min 37 W/m 36,0 km/h (5 Bft) 97,83 %
22.03.2018 10:04 3,3 C 3,3 C 2,2 C 96 % 15 lf 1015,1 hPa 0,0 l/m 0 min 0 min 52 W/m 31,5 km/h (5 Bft) 100,00 %
22.03.2018 10:08 3,3 C 3,3 C 2,2 C 96 % 15 lf 1015,1 hPa 0,0 l/m 0 min 4 min 47 W/m 31,5 km/h (5 Bft) 98,94 %
22.03.2018 10:10 3,4 C 3,3 C 2,2 C 96 % 15 lf 1015,2 hPa 0,0 l/m 0 min 2 min 37 W/m 31,5 km/h (5 Bft) 91,49 %
22.03.2018 10:12 3,4 C 3,3 C 2,8 C 96 % 15 lf 1015,1 hPa 0,0 l/m 0 min 2 min 50 W/m 36,0 km/h (5 Bft) 95,74 %
22.03.2018 10:14 3,4 C 3,3 C 2,8 C 96 % 15 lf 1015,1 hPa 0,0 l/m 0 min 2 min 59 W/m 27,0 km/h (4 Bft) 91,30 %
22.03.2018 10:16 3,4 C 3,3 C 2,8 C 96 % 15 lf 1015,1 hPa 0,0 l/m 0 min 2 min 48 W/m 27,0 km/h (4 Bft) 95,74 %
22.03.2018 10:18 3,4 C 3,3 C 2,8 C 96 % 15 lf 1015,1 hPa 0,0 l/m 0 min 2 min 48 W/m 22,5 km/h (4 Bft) 95,74 %
22.03.2018 10:20 3,5 C 3,3 C 2,8 C 96 % 15 lf 1015,1 hPa 0,0 l/m 0 min 2 min 51 W/m 27,0 km/h (4 Bft) 93,62 %
22.03.2018 10:22 3,5 C 3,3 C 2,8 C 96 % 15 lf 1015,1 hPa 0,0 l/m 0 min 2 min 47 W/m 29,3 km/h (5 Bft) 93,62 %
22.03.2018 10:24 3,6 C 3,3 C 2,8 C 96 % 15 lf 1015,1 hPa 0,0 l/m 0 min 2 min 45 W/m 29,3 km/h (5 Bft) 91,49 %
22.03.2018 10:26 3,6 C 3,9 C 2,8 C 96 % 15 lf 1015,0 hPa 0,0 l/m 0 min 2 min 49 W/m 24,8 km/h (4 Bft) 93,48 %
22.03.2018 10:28 3,6 C 3,9 C 2,8 C 96 % 15 lf 1015,0 hPa 0,0 l/m 0 min 2 min 62 W/m 31,5 km/h (5 Bft) 93,62 %
22.03.2018 10:30 3,7 C 3,9 C 2,8 C 96 % 15 lf 1014,9 hPa 0,0 l/m 0 min 2 min 69 W/m 29,3 km/h (5 Bft) 89,36 %
22.03.2018 10:32 3,7 C 3,9 C 2,8 C 96 % 15 lf 1015,0 hPa 0,0 l/m 0 min 2 min 55 W/m 27,0 km/h (4 Bft) 93,62 %
22.03.2018 10:34 3,7 C 3,9 C 2,8 C 96 % 15 lf 1014,9 hPa 0,0 l/m 0 min 2 min 45 W/m 36,0 km/h (5 Bft) 93,62 %
22.03.2018 10:36 3,7 C 3,9 C 2,8 C 96 % 15 lf 1014,9 hPa 0,0 l/m 0 min 2 min 50 W/m 31,5 km/h (5 Bft) 91,30 %
22.03.2018 10:38 3,7 C 3,9 C 2,8 C 97 % 15 lf 1014,9 hPa 0,0 l/m 0 min 2 min 50 W/m 27,0 km/h (4 Bft) 91,49 %
22.03.2018 10:40 3,8 C 3,9 C 2,8 C 97 % 15 lf 1014,9 hPa 0,0 l/m 0 min 2 min 57 W/m 31,5 km/h (5 Bft) 93,62 %
22.03.2018 10:42 3,8 C 3,9 C 3,3 C 97 % 15 lf 1015,0 hPa 0,0 l/m 0 min 2 min 56 W/m 29,3 km/h (5 Bft) 89,36 %
22.03.2018 10:44 3,8 C 3,9 C 3,3 C 97 % 15 lf 1015,0 hPa 0,0 l/m 0 min 2 min 56 W/m 18,0 km/h (3 Bft) 93,62 %
22.03.2018 10:46 3,8 C 3,9 C 3,3 C 97 % 15 lf 1015,0 hPa 0,0 l/m 0 min 2 min 55 W/m 18,0 km/h (3 Bft) 93,62 %
22.03.2018 10:48 3,9 C 3,9 C 3,3 C 97 % 15 lf 1015,0 hPa 0,0 l/m 0 min 2 min 55 W/m 27,0 km/h (4 Bft) 93,48 %
22.03.2018 10:50 3,9 C 3,9 C 3,3 C 97 % 15 lf 1015,0 hPa 0,0 l/m 0 min 2 min 61 W/m 22,5 km/h (4 Bft) 93,62 %
22.03.2018 10:52 3,9 C 4,4 C 3,3 C 97 % 15 lf 1015,0 hPa 0,0 l/m 0 min 2 min 104 W/m 22,5 km/h (4 Bft) 93,62 %
22.03.2018 10:54 4,0 C 4,4 C 3,9 C 97 % 15 lf 1014,9 hPa 0,0 l/m 0 min 2 min 124 W/m 24,8 km/h (4 Bft) 93,62 %
22.03.2018 10:56 4,1 C 4,4 C 3,9 C 97 % 15 lf 1014,9 hPa 0,0 l/m 0 min 2 min 94 W/m 27,0 km/h (4 Bft) 95,74 %
22.03.2018 10:58 4,1 C 4,4 C 3,3 C 97 % 15 lf 1014,9 hPa 0,0 l/m 0 min 2 min 55 W/m 29,3 km/h (5 Bft) 95,74 %
22.03.2018 11:00 4,1 C 4,4 C 3,3 C 97 % 15 lf 1014,9 hPa 0,0 l/m 0 min 2 min 48 W/m 15,8 km/h (3 Bft) 100,00 %
22.03.2018 11:02 4,2 C 4,4 C 3,3 C 97 % 15 lf 1014,9 hPa 0,0 l/m 0 min 2 min 55 W/m 20,3 km/h (4 Bft) 93,62 %
22.03.2018 11:04 4,2 C 4,4 C 3,9 C 97 % 15 lf 1014,9 hPa 0,0 l/m 0 min 2 min 78 W/m 18,0 km/h (3 Bft) 97,87 %
22.03.2018 11:08 4,2 C 4,4 C 3,9 C 97 % 15 lf 1015,0 hPa 0,0 l/m 0 min 4 min 78 W/m 31,5 km/h (5 Bft) 95,74 %
22.03.2018 11:10 4,3 C 4,4 C 3,9 C 97 % 15 lf 1014,9 hPa 0,0 l/m 0 min 2 min 58 W/m 24,8 km/h (4 Bft) 95,74 %
22.03.2018 11:12 4,3 C 4,4 C 3,3 C 97 % 15 lf 1014,9 hPa 0,0 l/m 0 min 2 min 53 W/m 24,8 km/h (4 Bft) 93,48 %
22.03.2018 11:14 4,3 C 4,4 C 3,3 C 97 % 15 lf 1014,9 hPa 0,0 l/m 0 min 2 min 56 W/m 22,5 km/h (4 Bft) 97,87 %
22.03.2018 11:16 4,3 C 4,4 C 3,9 C 97 % 15 lf 1014,9 hPa 0,0 l/m 0 min 2 min 58 W/m 20,3 km/h (4 Bft) 97,87 %
22.03.2018 11:18 4,3 C 4,4 C 3,9 C 97 % 15 lf 1014,9 hPa 0,0 l/m 0 min 2 min 78 W/m 22,5 km/h (4 Bft) 95,74 %
22.03.2018 11:20 4,4 C 4,4 C 3,9 C 97 % 15 lf 1014,9 hPa 0,0 l/m 0 min 2 min 85 W/m 29,3 km/h (5 Bft) 93,62 %
22.03.2018 11:22 4,4 C 4,4 C 3,9 C 97 % 15 lf 1014,9 hPa 0,0 l/m 0 min 2 min 93 W/m 22,5 km/h (4 Bft) 97,87 %
22.03.2018 11:24 4,4 C 4,4 C 3,9 C 97 % 15 lf 1014,9 hPa 0,0 l/m 0 min 2 min 81 W/m 24,8 km/h (4 Bft) 93,48 %
22.03.2018 11:26 4,4 C 4,4 C 3,9 C 97 % 15 lf 1014,9 hPa 0,0 l/m 0 min 2 min 69 W/m 22,5 km/h (4 Bft) 95,74 %
22.03.2018 11:28 4,5 C 4,4 C 3,9 C 97 % 15 lf 1014,9 hPa 0,0 l/m 0 min 2 min 63 W/m 20,3 km/h (4 Bft) 95,74 %
22.03.2018 11:30 4,5 C 4,4 C 3,9 C 97 % 15 lf 1014,9 hPa 0,0 l/m 0 min 2 min 62 W/m 24,8 km/h (4 Bft) 95,74 %
22.03.2018 11:32 4,6 C 4,4 C 3,9 C 97 % 15 lf 1014,8 hPa 0,0 l/m 0 min 0 min 59 W/m 22,5 km/h (4 Bft) 97,87 %
22.03.2018 11:34 4,6 C 4,4 C 3,9 C 97 % 15 lf 1014,8 hPa 0,0 l/m 0 min 0 min 45 W/m 22,5 km/h (4 Bft) 97,87 %
22.03.2018 11:36 4,6 C 4,4 C 3,9 C 97 % 15 lf 1014,8 hPa 0,0 l/m 0 min 2 min 47 W/m 18,0 km/h (3 Bft) 97,83 %
22.03.2018 11:38 4,6 C 4,4 C 3,9 C 97 % 15 lf 1014,8 hPa 0,0 l/m 0 min 0 min 50 W/m 13,5 km/h (3 Bft) 95,74 %
22.03.2018 11:40 4,6 C 4,4 C 3,9 C 97 % 15 lf 1014,8 hPa 0,0 l/m 0 min 0 min 45 W/m 18,0 km/h (3 Bft) 97,87 %
22.03.2018 11:42 4,6 C 4,4 C 3,9 C 97 % 15 lf 1014,8 hPa 0,0 l/m 0 min 2 min 51 W/m 18,0 km/h (3 Bft) 95,74 %
22.03.2018 11:44 4,7 C 5,0 C 3,9 C 97 % 15 lf 1014,7 hPa 0,0 l/m 0 min 0 min 58 W/m 15,8 km/h (3 Bft) 93,62 %
22.03.2018 11:46 4,7 C 5,0 C 3,9 C 97 % 15 lf 1014,7 hPa 0,0 l/m 0 min 2 min 71 W/m 18,0 km/h (3 Bft) 95,65 %
22.03.2018 11:48 4,7 C 5,0 C 3,9 C 97 % 15 lf 1014,7 hPa 0,0 l/m 0 min 0 min 62 W/m 18,0 km/h (3 Bft) 97,87 %
22.03.2018 11:50 4,7 C 5,0 C 4,4 C 97 % 15 lf 1014,7 hPa 0,0 l/m 0 min 0 min 65 W/m 22,5 km/h (4 Bft) 97,87 %
22.03.2018 11:52 4,8 C 5,0 C 3,9 C 97 % 15 lf 1014,6 hPa 0,0 l/m 0 min 0 min 66 W/m 18,0 km/h (3 Bft) 95,74 %
22.03.2018 11:54 4,8 C 5,0 C 4,4 C 97 % 15 lf 1014,6 hPa 0,0 l/m 0 min 2 min 70 W/m 20,3 km/h (4 Bft) 97,87 %
22.03.2018 11:56 4,8 C 5,0 C 4,4 C 97 % 15 lf 1014,5 hPa 0,0 l/m 0 min 0 min 71 W/m 24,8 km/h (4 Bft) 97,87 %
22.03.2018 11:58 4,8 C 5,0 C 4,4 C 97 % 15 lf 1014,5 hPa 0,0 l/m 0 min 0 min 71 W/m 20,3 km/h (4 Bft) 95,65 %
22.03.2018 12:00 4,9 C 5,0 C 4,4 C 97 % 15 lf 1014,5 hPa 0,0 l/m 0 min 0 min 68 W/m 15,8 km/h (3 Bft) 97,87 %
22.03.2018 12:02 4,9 C 5,0 C 4,4 C 97 % 15 lf 1014,5 hPa 0,0 l/m 0 min 0 min 59 W/m 20,3 km/h (4 Bft) 97,87 %
22.03.2018 12:04 4,9 C 5,0 C 4,4 C 97 % 15 lf 1014,5 hPa 0,0 l/m 0 min 0 min 62 W/m 18,0 km/h (3 Bft) 97,87 %
22.03.2018 12:08 4,9 C 5,0 C 4,4 C 97 % 15 lf 1014,4 hPa 0,0 l/m 0 min 4 min 64 W/m 31,5 km/h (5 Bft) 97,92 %
22.03.2018 12:10 5,0 C 5,0 C 4,4 C 97 % 15 lf 1014,4 hPa 0,0 l/m 0 min 2 min 54 W/m 20,3 km/h (4 Bft) 95,74 %
22.03.2018 12:12 5,0 C 5,0 C 4,4 C 97 % 15 lf 1014,6 hPa 0,0 l/m 0 min 0 min 49 W/m 13,5 km/h (3 Bft) 100,00 %
22.03.2018 12:14 5,0 C 5,0 C 4,4 C 97 % 15 lf 1014,5 hPa 0,0 l/m 0 min 0 min 52 W/m 15,8 km/h (3 Bft) 100,00 %
22.03.2018 12:16 5,1 C 5,0 C 4,4 C 97 % 15 lf 1014,4 hPa 0,0 l/m 0 min 0 min 51 W/m 18,0 km/h (3 Bft) 97,87 %
22.03.2018 12:18 5,1 C 5,0 C 4,4 C 97 % 15 lf 1014,3 hPa 0,0 l/m 0 min 0 min 55 W/m 20,3 km/h (4 Bft) 97,87 %
22.03.2018 12:20 5,1 C 5,0 C 4,4 C 97 % 15 lf 1014,3 hPa 0,0 l/m 0 min 0 min 64 W/m 24,8 km/h (4 Bft) 95,65 %
22.03.2018 12:22 5,1 C 5,0 C 4,4 C 97 % 15 lf 1014,2 hPa 0,0 l/m 0 min 0 min 56 W/m 29,3 km/h (5 Bft) 97,87 %
22.03.2018 12:24 5,1 C 5,0 C 4,4 C 97 % 15 lf 1014,2 hPa 0,0 l/m 0 min 0 min 59 W/m 20,3 km/h (4 Bft) 93,62 %
22.03.2018 12:26 5,1 C 5,6 C 4,4 C 97 % 15 lf 1014,3 hPa 0,0 l/m 0 min 0 min 80 W/m 24,8 km/h (4 Bft) 97,87 %
22.03.2018 12:28 5,2 C 5,6 C 4,4 C 97 % 15 lf 1014,2 hPa 0,0 l/m 0 min 0 min 95 W/m 24,8 km/h (4 Bft) 100,00 %
22.03.2018 12:30 5,2 C 5,6 C 5,0 C 97 % 15 lf 1014,2 hPa 0,0 l/m 0 min 0 min 82 W/m 24,8 km/h (4 Bft) 97,87 %
22.03.2018 12:32 5,2 C 5,6 C 5,0 C 97 % 15 lf 1014,1 hPa 0,0 l/m 0 min 2 min 79 W/m 22,5 km/h (4 Bft) 95,65 %
22.03.2018 12:34 5,2 C 5,6 C 5,0 C 97 % 15 lf 1014,2 hPa 0,0 l/m 0 min 0 min 87 W/m 22,5 km/h (4 Bft) 95,74 %
22.03.2018 12:36 5,3 C 5,6 C 5,0 C 98 % 15 lf 1014,1 hPa 0,0 l/m 0 min 0 min 79 W/m 27,0 km/h (4 Bft) 95,74 %
22.03.2018 12:38 5,3 C 5,6 C 5,0 C 98 % 15 lf 1014,1 hPa 0,0 l/m 0 min 0 min 77 W/m 24,8 km/h (4 Bft) 95,74 %
22.03.2018 12:40 5,3 C 5,6 C 5,0 C 97 % 15 lf 1014,1 hPa 0,0 l/m 0 min 0 min 74 W/m 20,3 km/h (4 Bft) 97,87 %
22.03.2018 12:42 5,3 C 5,6 C 5,0 C 97 % 15 lf 1014,0 hPa 0,0 l/m 0 min 0 min 80 W/m 20,3 km/h (4 Bft) 95,74 %
22.03.2018 12:44 5,3 C 5,6 C 5,0 C 97 % 15 lf 1014,0 hPa 0,0 l/m 0 min 0 min 69 W/m 20,3 km/h (4 Bft) 95,65 %
22.03.2018 12:46 5,3 C 5,6 C 5,0 C 98 % 15 lf 1014,0 hPa 0,0 l/m 0 min 0 min 70 W/m 18,0 km/h (3 Bft) 95,74 %
22.03.2018 12:48 5,4 C 5,6 C 5,0 C 98 % 15 lf 1014,0 hPa 0,0 l/m 0 min 0 min 70 W/m 18,0 km/h (3 Bft) 95,74 %
22.03.2018 12:50 5,4 C 5,6 C 5,0 C 98 % 15 lf 1014,0 hPa 0,0 l/m 0 min 0 min 71 W/m 22,5 km/h (4 Bft) 93,62 %
22.03.2018 12:52 5,4 C 5,6 C 5,0 C 98 % 15 lf 1013,9 hPa 0,0 l/m 0 min 0 min 64 W/m 24,8 km/h (4 Bft) 93,62 %
22.03.2018 12:54 5,4 C 5,6 C 4,4 C 98 % 15 lf 1014,0 hPa 0,0 l/m 0 min 0 min 61 W/m 20,3 km/h (4 Bft) 95,74 %
22.03.2018 12:56 5,4 C 5,6 C 4,4 C 98 % 15 lf 1013,9 hPa 0,0 l/m 0 min 0 min 62 W/m 20,3 km/h (4 Bft) 95,65 %
22.03.2018 12:58 5,4 C 5,6 C 5,0 C 98 % 15 lf 1013,9 hPa 0,0 l/m 0 min 0 min 57 W/m 18,0 km/h (3 Bft) 97,87 %
22.03.2018 13:00 5,4 C 5,6 C 5,0 C 98 % 15 lf 1013,9 hPa 0,0 l/m 0 min 0 min 70 W/m 18,0 km/h (3 Bft) 95,74 %
22.03.2018 13:02 5,4 C 5,6 C 5,0 C 98 % 15 lf 1013,8 hPa 0,0 l/m 0 min 0 min 76 W/m 20,3 km/h (4 Bft) 93,62 %
22.03.2018 13:04 5,5 C 6,1 C 5,0 C 98 % 15 lf 1013,8 hPa 0,0 l/m 0 min 0 min 76 W/m 15,8 km/h (3 Bft) 97,87 %
22.03.2018 13:06 5,5 C 6,1 C 5,0 C 98 % 15 lf 1013,8 hPa 0,0 l/m 0 min 0 min 80 W/m 13,5 km/h (3 Bft) 95,74 %
22.03.2018 13:08 5,5 C 6,1 C 5,0 C 98 % 15 lf 1013,8 hPa 0,0 l/m 0 min 0 min 79 W/m 20,3 km/h (4 Bft) 97,83 %
22.03.2018 13:10 5,6 C 6,1 C 5,0 C 98 % 15 lf 1013,7 hPa 0,0 l/m 0 min 0 min 72 W/m 15,8 km/h (3 Bft) 95,74 %
22.03.2018 13:12 5,6 C 6,1 C 5,0 C 98 % 15 lf 1013,7 hPa 0,0 l/m 0 min 0 min 67 W/m 15,8 km/h (3 Bft) 93,62 %
22.03.2018 13:14 5,6 C 6,1 C 5,0 C 98 % 15 lf 1013,7 hPa 0,0 l/m 0 min 0 min 63 W/m 15,8 km/h (3 Bft) 95,74 %
22.03.2018 13:16 5,6 C 6,1 C 5,0 C 98 % 15 lf 1013,8 hPa 0,0 l/m 0 min 0 min 60 W/m 13,5 km/h (3 Bft) 95,74 %
22.03.2018 13:18 5,6 C 6,1 C 5,0 C 98 % 15 lf 1013,7 hPa 0,0 l/m 0 min 0 min 55 W/m 13,5 km/h (3 Bft) 91,49 %
22.03.2018 13:20 5,6 C 6,1 C 5,0 C 98 % 15 lf 1013,7 hPa 0,0 l/m 0 min 0 min 56 W/m 20,3 km/h (4 Bft) 95,65 %
22.03.2018 13:22 5,7 C 6,1 C 5,0 C 98 % 15 lf 1013,7 hPa 0,0 l/m 0 min 0 min 63 W/m 22,5 km/h (4 Bft) 95,74 %
22.03.2018 13:24 5,7 C 6,1 C 5,0 C 98 % 15 lf 1013,7 hPa 0,0 l/m 0 min 0 min 62 W/m 18,0 km/h (3 Bft) 95,74 %
22.03.2018 13:26 5,7 C 6,1 C 5,0 C 98 % 15 lf 1013,7 hPa 0,0 l/m 0 min 0 min 55 W/m 20,3 km/h (4 Bft) 95,74 %
22.03.2018 13:28 5,7 C 6,1 C 5,0 C 98 % 15 lf 1013,6 hPa 0,0 l/m 0 min 0 min 58 W/m 15,8 km/h (3 Bft) 97,87 %
22.03.2018 13:30 5,7 C 6,1 C 5,0 C 98 % 15 lf 1013,7 hPa 0,0 l/m 0 min 0 min 56 W/m 22,5 km/h (4 Bft) 93,48 %
22.03.2018 13:32 5,7 C 6,1 C 5,0 C 98 % 15 lf 1013,7 hPa 0,0 l/m 0 min 0 min 52 W/m 11,3 km/h (2 Bft) 95,74 %
22.03.2018 13:34 5,7 C 6,1 C 5,0 C 98 % 15 lf 1013,7 hPa 0,0 l/m 0 min 0 min 50 W/m 24,8 km/h (4 Bft) 95,74 %
22.03.2018 13:36 5,7 C 6,1 C 5,0 C 98 % 15 lf 1013,7 hPa 0,0 l/m 0 min 0 min 53 W/m 20,3 km/h (4 Bft) 95,74 %
22.03.2018 13:38 5,7 C 6,1 C 5,0 C 98 % 15 lf 1013,7 hPa 0,0 l/m 0 min 0 min 54 W/m 13,5 km/h (3 Bft) 97,87 %
22.03.2018 13:40 5,8 C 6,1 C 5,0 C 98 % 15 lf 1013,7 hPa 0,0 l/m 0 min 0 min 60 W/m 20,3 km/h (4 Bft) 95,74 %
22.03.2018 13:42 5,8 C 6,1 C 5,0 C 98 % 15 lf 1013,7 hPa 0,0 l/m 0 min 0 min 51 W/m 18,0 km/h (3 Bft) 93,48 %
22.03.2018 13:44 5,8 C 6,1 C 5,0 C 98 % 15 lf 1013,7 hPa 0,0 l/m 0 min 0 min 61 W/m 15,8 km/h (3 Bft) 95,74 %
22.03.2018 13:46 5,8 C 6,1 C 5,0 C 98 % 15 lf 1013,7 hPa 0,0 l/m 0 min 0 min 56 W/m 13,5 km/h (3 Bft) 97,87 %
22.03.2018 13:48 5,8 C 6,1 C 5,0 C 98 % 15 lf 1013,7 hPa 0,0 l/m 0 min 0 min 59 W/m 15,8 km/h (3 Bft) 97,87 %
22.03.2018 13:50 5,8 C 6,1 C 5,0 C 98 % 15 lf 1013,7 hPa 0,0 l/m 0 min 0 min 63 W/m 18,0 km/h (3 Bft) 97,87 %
22.03.2018 13:52 5,9 C 6,1 C 5,6 C 98 % 15 lf 1013,7 hPa 0,0 l/m 0 min 0 min 71 W/m 18,0 km/h (3 Bft) 97,87 %
22.03.2018 13:54 5,9 C 6,1 C 5,6 C 98 % 15 lf 1013,6 hPa 0,0 l/m 0 min 0 min 86 W/m 22,5 km/h (4 Bft) 95,65 %
22.03.2018 13:56 5,9 C 6,7 C 5,6 C 98 % 15 lf 1013,6 hPa 0,0 l/m 0 min 0 min 97 W/m 15,8 km/h (3 Bft) 95,74 %
22.03.2018 13:58 6,0 C 6,7 C 5,6 C 98 % 15 lf 1013,6 hPa 0,0 l/m 0 min 0 min 100 W/m 20,3 km/h (4 Bft) 93,62 %
22.03.2018 14:00 6,1 C 6,7 C 6,1 C 98 % 15 lf 1013,6 hPa 0,0 l/m 0 min 0 min 116 W/m 20,3 km/h (4 Bft) 97,87 %
22.03.2018 14:02 6,1 C 6,7 C 6,1 C 98 % 15 lf 1013,6 hPa 0,0 l/m 0 min 0 min 106 W/m 22,5 km/h (4 Bft) 97,87 %
22.03.2018 14:04 6,1 C 6,7 C 6,1 C 98 % 15 lf 1013,6 hPa 0,0 l/m 0 min 0 min 96 W/m 20,3 km/h (4 Bft) 97,87 %
22.03.2018 14:06 6,2 C 7,2 C 6,1 C 98 % 15 lf 1013,6 hPa 0,0 l/m 0 min 0 min 118 W/m 20,3 km/h (4 Bft) 100,00 %
22.03.2018 14:08 6,2 C 7,2 C 6,7 C 98 % 15 lf 1013,6 hPa 0,0 l/m 0 min 0 min 174 W/m 15,8 km/h (3 Bft) 100,00 %
22.03.2018 14:10 6,3 C 7,8 C 7,2 C 98 % 15 lf 1013,6 hPa 0,0 l/m 0 min 0 min 175 W/m 20,3 km/h (4 Bft) 97,87 %
22.03.2018 14:12 6,4 C 8,3 C 7,2 C 98 % 15 lf 1013,5 hPa 0,0 l/m 0 min 0 min 213 W/m 13,5 km/h (3 Bft) 97,87 %
22.03.2018 14:14 6,4 C 8,9 C 7,2 C 98 % 15 lf 1013,5 hPa 0,0 l/m 0 min 0 min 225 W/m 18,0 km/h (3 Bft) 97,87 %
22.03.2018 14:16 6,6 C 8,9 C 6,7 C 98 % 15 lf 1013,4 hPa 0,0 l/m 0 min 0 min 157 W/m 18,0 km/h (3 Bft) 97,87 %
22.03.2018 14:18 6,6 C 10,0 C 6,7 C 98 % 15 lf 1013,4 hPa 0,0 l/m 0 min 0 min 192 W/m 15,8 km/h (3 Bft) 100,00 %
22.03.2018 14:20 6,7 C 10,6 C 7,2 C 98 % 15 lf 1013,3 hPa 0,0 l/m 0 min 0 min 224 W/m 24,8 km/h (4 Bft) 100,00 %
22.03.2018 14:22 6,9 C 11,1 C 8,3 C 98 % 15 lf 1013,4 hPa 0,0 l/m 0 min 0 min 244 W/m 18,0 km/h (3 Bft) 100,00 %
22.03.2018 14:24 7,1 C 12,2 C 8,9 C 98 % 15 lf 1013,3 hPa 0,0 l/m 2 min 0 min 360 W/m 18,0 km/h (3 Bft) 100,00 %
22.03.2018 14:26 7,2 C 11,7 C 8,9 C 98 % 14 lf 1013,4 hPa 0,0 l/m 0 min 0 min 243 W/m 24,8 km/h (4 Bft) 95,74 %
22.03.2018 14:28 7,3 C 11,1 C 8,9 C 98 % 12 lf 1013,4 hPa 0,0 l/m 0 min 0 min 208 W/m 20,3 km/h (4 Bft) 95,74 %
22.03.2018 14:30 7,3 C 10,6 C 7,8 C 98 % 8 lf 1013,4 hPa 0,0 l/m 0 min 0 min 165 W/m 20,3 km/h (4 Bft) 95,65 %
22.03.2018 14:32 7,3 C 9,4 C 7,8 C 98 % 4 lf 1013,4 hPa 0,0 l/m 0 min 0 min 136 W/m 24,8 km/h (4 Bft) 95,74 %
22.03.2018 14:34 7,3 C 8,9 C 7,2 C 98 % 3 lf 1013,3 hPa 0,0 l/m 0 min 0 min 125 W/m 24,8 km/h (4 Bft) 95,74 %
22.03.2018 14:36 7,3 C 8,9 C 7,2 C 98 % 2 lf 1013,3 hPa 0,0 l/m 0 min 0 min 113 W/m 15,8 km/h (3 Bft) 95,74 %
22.03.2018 14:38 7,3 C 8,3 C 7,2 C 98 % 1 lf 1013,3 hPa 0,0 l/m 0 min 0 min 92 W/m 13,5 km/h (3 Bft) 97,87 %
22.03.2018 14:40 7,2 C 8,3 C 6,7 C 98 % 1 lf 1013,3 hPa 0,0 l/m 0 min 0 min 61 W/m 15,8 km/h (3 Bft) 93,48 %
22.03.2018 14:42 7,2 C 8,3 C 6,7 C 98 % 1 lf 1013,2 hPa 0,0 l/m 0 min 0 min 45 W/m 13,5 km/h (3 Bft) 95,74 %
22.03.2018 14:44 7,2 C 7,8 C 6,7 C 98 % 1 lf 1013,2 hPa 0,0 l/m 0 min 0 min 46 W/m 9,0 km/h (2 Bft) 95,74 %
22.03.2018 14:46 7,2 C 7,8 C 6,7 C 98 % 1 lf 1013,2 hPa 0,0 l/m 0 min 0 min 46 W/m 15,8 km/h (3 Bft) 93,62 %
22.03.2018 14:48 7,1 C 7,8 C 6,7 C 98 % 1 lf 1013,2 hPa 0,0 l/m 0 min 0 min 46 W/m 20,3 km/h (4 Bft) 93,62 %
22.03.2018 14:50 7,1 C 7,8 C 6,1 C 98 % 0 lf 1013,2 hPa 0,0 l/m 0 min 0 min 45 W/m 20,3 km/h (4 Bft) 95,74 %
22.03.2018 14:52 7,1 C 7,8 C 6,1 C 98 % 0 lf 1013,2 hPa 0,0 l/m 0 min 0 min 49 W/m 11,3 km/h (2 Bft) 95,65 %
22.03.2018 14:54 7,1 C 7,8 C 6,1 C 98 % 0 lf 1013,2 hPa 0,0 l/m 0 min 0 min 47 W/m 11,3 km/h (2 Bft) 95,74 %
22.03.2018 14:56 7,1 C 7,8 C 6,1 C 98 % 0 lf 1013,2 hPa 0,0 l/m 0 min 0 min 46 W/m 18,0 km/h (3 Bft) 95,74 %
22.03.2018 14:58 7,0 C 7,8 C 6,1 C 98 % 0 lf 1013,2 hPa 0,0 l/m 0 min 0 min 49 W/m 13,5 km/h (3 Bft) 97,87 %
22.03.2018 15:00 7,0 C 7,8 C 6,1 C 98 % 0 lf 1013,2 hPa 0,0 l/m 0 min 0 min 52 W/m 18,0 km/h (3 Bft) 95,74 %
22.03.2018 15:02 7,0 C 7,8 C 6,1 C 98 % 0 lf 1013,1 hPa 0,0 l/m 0 min 0 min 52 W/m 15,8 km/h (3 Bft) 95,74 %
22.03.2018 15:04 7,0 C 7,8 C 6,1 C 98 % 0 lf 1013,1 hPa 0,0 l/m 0 min 0 min 46 W/m 13,5 km/h (3 Bft) 95,65 %
22.03.2018 15:06 7,0 C 7,8 C 6,1 C 98 % 0 lf 1013,1 hPa 0,0 l/m 0 min 0 min 44 W/m 15,8 km/h (3 Bft) 93,62 %
22.03.2018 15:08 7,0 C 7,8 C 6,1 C 98 % 0 lf 1013,2 hPa 0,0 l/m 0 min 0 min 40 W/m 15,8 km/h (3 Bft) 95,74 %
22.03.2018 15:10 7,0 C 7,8 C 6,1 C 98 % 0 lf 1013,1 hPa 0,0 l/m 0 min 0 min 36 W/m 9,0 km/h (2 Bft) 95,74 %
22.03.2018 15:12 7,0 C 7,8 C 6,1 C 98 % 0 lf 1013,2 hPa 0,0 l/m 0 min 0 min 32 W/m 11,3 km/h (2 Bft) 97,87 %
22.03.2018 15:14 7,0 C 7,2 C 6,1 C 98 % 1 lf 1013,1 hPa 0,0 l/m 0 min 0 min 28 W/m 11,3 km/h (2 Bft) 97,87 %
22.03.2018 15:16 7,0 C 7,2 C 6,1 C 98 % 1 lf 1013,2 hPa 0,0 l/m 0 min 0 min 25 W/m 9,0 km/h (2 Bft) 100,00 %
22.03.2018 15:18 7,0 C 7,2 C 5,6 C 98 % 2 lf 1013,1 hPa 0,0 l/m 0 min 0 min 25 W/m 13,5 km/h (3 Bft) 100,00 %
22.03.2018 15:20 7,0 C 7,2 C 5,6 C 98 % 3 lf 1013,1 hPa 0,0 l/m 0 min 0 min 25 W/m 18,0 km/h (3 Bft) 97,87 %
22.03.2018 15:22 7,0 C 7,2 C 5,6 C 98 % 3 lf 1013,1 hPa 0,0 l/m 0 min 0 min 25 W/m 15,8 km/h (3 Bft) 91,49 %
22.03.2018 15:24 7,0 C 7,2 C 5,6 C 98 % 10 lf 1013,1 hPa 0,0 l/m 0 min 0 min 22 W/m 11,3 km/h (2 Bft) 95,74 %
22.03.2018 15:26 7,0 C 7,2 C 5,6 C 98 % 12 lf 1013,0 hPa 0,0 l/m 0 min 0 min 23 W/m 13,5 km/h (3 Bft) 97,87 %
22.03.2018 15:28 7,0 C 7,2 C 5,6 C 98 % 13 lf 1013,0 hPa 0,0 l/m 0 min 0 min 23 W/m 9,0 km/h (2 Bft) 97,83 %
22.03.2018 15:30 6,9 C 7,2 C 5,6 C 98 % 15 lf 1013,0 hPa 0,0 l/m 0 min 0 min 22 W/m 18,0 km/h (3 Bft) 97,87 %
22.03.2018 15:32 6,9 C 7,2 C 5,6 C 98 % 15 lf 1013,0 hPa 0,0 l/m 0 min 0 min 29 W/m 13,5 km/h (3 Bft) 95,74 %
22.03.2018 15:34 6,9 C 7,2 C 5,6 C 98 % 15 lf 1013,0 hPa 0,0 l/m 0 min 0 min 32 W/m 20,3 km/h (4 Bft) 95,74 %
22.03.2018 15:36 6,9 C 7,2 C 5,6 C 97 % 15 lf 1012,9 hPa 0,0 l/m 0 min 0 min 34 W/m 18,0 km/h (3 Bft) 95,74 %
22.03.2018 15:38 6,9 C 7,2 C 5,6 C 97 % 15 lf 1013,0 hPa 0,0 l/m 0 min 0 min 32 W/m 18,0 km/h (3 Bft) 97,87 %
22.03.2018 15:40 6,9 C 7,2 C 5,6 C 97 % 15 lf 1012,9 hPa 0,0 l/m 0 min 0 min 37 W/m 15,8 km/h (3 Bft) 93,48 %
22.03.2018 15:42 6,9 C 7,2 C 5,6 C 97 % 15 lf 1012,9 hPa 0,0 l/m 0 min 0 min 39 W/m 9,0 km/h (2 Bft) 95,74 %
22.03.2018 15:44 6,9 C 7,2 C 5,6 C 97 % 15 lf 1012,9 hPa 0,0 l/m 0 min 0 min 44 W/m 15,8 km/h (3 Bft) 97,87 %
22.03.2018 15:46 6,9 C 7,2 C 6,1 C 97 % 15 lf 1012,9 hPa 0,0 l/m 0 min 0 min 51 W/m 15,8 km/h (3 Bft) 95,74 %
22.03.2018 15:48 7,0 C 7,2 C 6,1 C 97 % 15 lf 1012,8 hPa 0,0 l/m 0 min 0 min 55 W/m 6,8 km/h (2 Bft) 97,87 %
22.03.2018 15:50 7,0 C 7,2 C 6,1 C 97 % 15 lf 1012,8 hPa 0,0 l/m 0 min 0 min 66 W/m 9,0 km/h (2 Bft) 95,74 %
22.03.2018 15:52 7,0 C 7,2 C 6,1 C 98 % 15 lf 1012,8 hPa 0,0 l/m 0 min 0 min 84 W/m 13,5 km/h (3 Bft) 97,83 %
22.03.2018 15:54 7,0 C 7,8 C 6,7 C 98 % 15 lf 1012,8 hPa 0,0 l/m 0 min 0 min 95 W/m 9,0 km/h (2 Bft) 95,92 %
22.03.2018 15:56 7,1 C 7,8 C 6,7 C 97 % 15 lf 1012,8 hPa 0,0 l/m 0 min 0 min 94 W/m 13,5 km/h (3 Bft) 95,74 %
22.03.2018 15:58 7,1 C 8,3 C 6,7 C 97 % 15 lf 1012,8 hPa 0,0 l/m 0 min 0 min 91 W/m 11,3 km/h (2 Bft) 97,87 %
22.03.2018 16:00 7,1 C 8,3 C 6,7 C 97 % 14 lf 1012,7 hPa 0,0 l/m 0 min 0 min 98 W/m 6,8 km/h (2 Bft) 97,83 %
22.03.2018 16:02 7,2 C 8,3 C 7,2 C 97 % 14 lf 1012,7 hPa 0,0 l/m 0 min 0 min 109 W/m 9,0 km/h (2 Bft) 97,87 %
22.03.2018 16:04 7,2 C 8,3 C 7,2 C 97 % 13 lf 1012,6 hPa 0,0 l/m 0 min 0 min 115 W/m 13,5 km/h (3 Bft) 97,87 %
22.03.2018 16:06 7,2 C 8,9 C 7,2 C 97 % 12 lf 1012,7 hPa 0,0 l/m 0 min 0 min 126 W/m 13,5 km/h (3 Bft) 97,87 %
22.03.2018 16:08 7,3 C 8,9 C 7,2 C 97 % 7 lf 1012,6 hPa 0,0 l/m 0 min 0 min 134 W/m 18,0 km/h (3 Bft) 95,74 %
22.03.2018 16:10 7,3 C 9,4 C 7,2 C 97 % 3 lf 1012,7 hPa 0,0 l/m 0 min 0 min 125 W/m 18,0 km/h (3 Bft) 100,00 %
22.03.2018 16:12 7,4 C 9,4 C 7,2 C 98 % 1 lf 1012,6 hPa 0,0 l/m 0 min 0 min 116 W/m 11,3 km/h (2 Bft) 100,00 %
22.03.2018 16:14 7,4 C 9,4 C 7,2 C 98 % 0 lf 1012,6 hPa 0,0 l/m 0 min 0 min 109 W/m 18,0 km/h (3 Bft) 95,74 %
22.03.2018 16:16 7,4 C 9,4 C 7,2 C 97 % 0 lf 1012,5 hPa 0,0 l/m 0 min 0 min 108 W/m 13,5 km/h (3 Bft) 95,74 %
22.03.2018 16:18 7,5 C 8,9 C 7,2 C 97 % 0 lf 1012,5 hPa 0,0 l/m 0 min 0 min 109 W/m 15,8 km/h (3 Bft) 95,74 %
22.03.2018 16:20 7,5 C 8,9 C 7,2 C 97 % 0 lf 1012,5 hPa 0,0 l/m 0 min 0 min 110 W/m 11,3 km/h (2 Bft) 100,00 %
22.03.2018 16:22 7,6 C 9,4 C 7,2 C 97 % 0 lf 1012,5 hPa 0,0 l/m 0 min 0 min 100 W/m 11,3 km/h (2 Bft) 97,87 %
22.03.2018 16:24 7,6 C 8,9 C 7,2 C 97 % 0 lf 1012,5 hPa 0,0 l/m 0 min 0 min 92 W/m 18,0 km/h (3 Bft) 93,48 %
22.03.2018 16:26 7,6 C 8,9 C 7,2 C 97 % 0 lf 1012,6 hPa 0,0 l/m 0 min 0 min 90 W/m 18,0 km/h (3 Bft) 95,74 %
22.03.2018 16:28 7,6 C 8,9 C 7,2 C 97 % 0 lf 1012,6 hPa 0,0 l/m 0 min 0 min 88 W/m 13,5 km/h (3 Bft) 97,87 %
22.03.2018 16:30 7,6 C 8,9 C 7,2 C 97 % 0 lf 1012,5 hPa 0,0 l/m 0 min 0 min 88 W/m 15,8 km/h (3 Bft) 95,74 %
22.03.2018 16:32 7,6 C 8,9 C 7,2 C 97 % 0 lf 1012,5 hPa 0,0 l/m 0 min 0 min 94 W/m 13,5 km/h (3 Bft) 95,74 %
22.03.2018 16:34 7,7 C 8,9 C 7,2 C 97 % 0 lf 1012,5 hPa 0,0 l/m 0 min 0 min 93 W/m 18,0 km/h (3 Bft) 95,74 %
22.03.2018 16:36 7,7 C 8,9 C 6,7 C 97 % 0 lf 1012,5 hPa 0,0 l/m 0 min 0 min 85 W/m 20,3 km/h (4 Bft) 95,65 %
22.03.2018 16:38 7,6 C 8,3 C 6,7 C 97 % 0 lf 1012,5 hPa 0,0 l/m 0 min 0 min 68 W/m 18,0 km/h (3 Bft) 95,74 %
22.03.2018 16:40 7,6 C 8,3 C 6,7 C 97 % 0 lf 1012,5 hPa 0,0 l/m 0 min 0 min 62 W/m 15,8 km/h (3 Bft) 95,74 %
22.03.2018 16:42 7,6 C 8,3 C 6,7 C 97 % 0 lf 1012,5 hPa 0,0 l/m 0 min 0 min 58 W/m 15,8 km/h (3 Bft) 95,74 %
22.03.2018 16:44 7,6 C 8,3 C 6,7 C 97 % 0 lf 1012,5 hPa 0,0 l/m 0 min 0 min 54 W/m 9,0 km/h (2 Bft) 97,87 %
22.03.2018 16:46 7,6 C 8,3 C 6,7 C 97 % 0 lf 1012,5 hPa 0,0 l/m 0 min 0 min 51 W/m 18,0 km/h (3 Bft) 95,74 %
22.03.2018 16:48 7,6 C 8,3 C 6,7 C 97 % 0 lf 1012,4 hPa 0,0 l/m 0 min 0 min 50 W/m 15,8 km/h (3 Bft) 93,48 %
22.03.2018 16:50 7,6 C 8,3 C 6,7 C 97 % 0 lf 1012,5 hPa 0,0 l/m 0 min 0 min 47 W/m 11,3 km/h (2 Bft) 93,62 %
22.03.2018 16:52 7,6 C 8,3 C 6,7 C 97 % 0 lf 1012,5 hPa 0,0 l/m 0 min 0 min 46 W/m 13,5 km/h (3 Bft) 95,74 %
22.03.2018 16:54 7,6 C 8,3 C 6,7 C 97 % 0 lf 1012,4 hPa 0,0 l/m 0 min 0 min 46 W/m 13,5 km/h (3 Bft) 95,74 %
22.03.2018 16:56 7,6 C 8,3 C 6,7 C 97 % 0 lf 1012,5 hPa 0,0 l/m 0 min 0 min 44 W/m 13,5 km/h (3 Bft) 93,62 %
22.03.2018 16:58 7,6 C 8,3 C 6,7 C 96 % 0 lf 1012,5 hPa 0,0 l/m 0 min 0 min 43 W/m 18,0 km/h (3 Bft) 95,74 %
22.03.2018 17:00 7,6 C 8,3 C 6,7 C 96 % 0 lf 1012,5 hPa 0,0 l/m 0 min 0 min 41 W/m 13,5 km/h (3 Bft) 93,48 %
22.03.2018 17:02 7,6 C 8,3 C 6,7 C 96 % 0 lf 1012,6 hPa 0,0 l/m 0 min 0 min 39 W/m 18,0 km/h (3 Bft) 95,74 %
22.03.2018 17:04 7,6 C 8,3 C 6,7 C 96 % 0 lf 1012,6 hPa 0,0 l/m 0 min 0 min 39 W/m 13,5 km/h (3 Bft) 93,62 %
22.03.2018 17:06 7,6 C 8,3 C 6,1 C 96 % 0 lf 1012,5 hPa 0,0 l/m 0 min 0 min 39 W/m 20,3 km/h (4 Bft) 97,87 %
22.03.2018 17:08 7,6 C 8,3 C 6,1 C 96 % 0 lf 1012,6 hPa 0,0 l/m 0 min 0 min 40 W/m 15,8 km/h (3 Bft) 95,74 %
22.03.2018 17:10 7,6 C 8,3 C 6,1 C 96 % 0 lf 1012,5 hPa 0,0 l/m 0 min 0 min 37 W/m 18,0 km/h (3 Bft) 95,74 %
22.03.2018 17:12 7,6 C 7,8 C 6,1 C 96 % 0 lf 1012,6 hPa 0,0 l/m 0 min 0 min 33 W/m 9,0 km/h (2 Bft) 95,65 %
22.03.2018 17:14 7,6 C 7,8 C 6,1 C 96 % 0 lf 1012,6 hPa 0,0 l/m 0 min 0 min 28 W/m 11,3 km/h (2 Bft) 97,87 %
22.03.2018 17:16 7,6 C 7,8 C 6,1 C 96 % 0 lf 1012,6 hPa 0,0 l/m 0 min 0 min 26 W/m 15,8 km/h (3 Bft) 100,00 %
22.03.2018 17:18 7,6 C 7,8 C 6,1 C 95 % 0 lf 1012,6 hPa 0,0 l/m 0 min 0 min 25 W/m 13,5 km/h (3 Bft) 97,87 %
22.03.2018 17:20 7,6 C 7,8 C 6,1 C 95 % 0 lf 1012,7 hPa 0,0 l/m 0 min 0 min 24 W/m 11,3 km/h (2 Bft) 100,00 %
22.03.2018 17:22 7,6 C 7,8 C 6,1 C 95 % 0 lf 1012,7 hPa 0,0 l/m 0 min 0 min 22 W/m 20,3 km/h (4 Bft) 97,83 %
22.03.2018 17:24 7,6 C 7,8 C 6,1 C 95 % 0 lf 1012,6 hPa 0,0 l/m 0 min 0 min 22 W/m 18,0 km/h (3 Bft) 97,87 %
22.03.2018 17:26 7,6 C 7,8 C 6,1 C 95 % 0 lf 1012,7 hPa 0,0 l/m 0 min 0 min 24 W/m 11,3 km/h (2 Bft) 100,00 %
22.03.2018 17:28 7,6 C 7,8 C 6,1 C 95 % 0 lf 1012,6 hPa 0,0 l/m 0 min 0 min 25 W/m 13,5 km/h (3 Bft) 97,87 %
22.03.2018 17:30 7,6 C 7,8 C 6,1 C 95 % 0 lf 1012,6 hPa 0,0 l/m 0 min 0 min 29 W/m 15,8 km/h (3 Bft) 97,87 %
22.03.2018 17:32 7,6 C 7,8 C 6,1 C 95 % 0 lf 1012,6 hPa 0,0 l/m 0 min 0 min 31 W/m 11,3 km/h (2 Bft) 100,00 %
22.03.2018 17:34 7,6 C 7,8 C 6,1 C 95 % 0 lf 1012,7 hPa 0,0 l/m 0 min 0 min 30 W/m 13,5 km/h (3 Bft) 100,00 %
22.03.2018 17:36 7,6 C 7,8 C 6,1 C 95 % 0 lf 1012,7 hPa 0,0 l/m 0 min 0 min 30 W/m 13,5 km/h (3 Bft) 97,87 %
22.03.2018 17:38 7,6 C 7,8 C 6,1 C 95 % 0 lf 1012,7 hPa 0,0 l/m 0 min 0 min 28 W/m 11,3 km/h (2 Bft) 95,74 %
22.03.2018 17:40 7,6 C 7,8 C 6,1 C 95 % 0 lf 1012,6 hPa 0,0 l/m 0 min 0 min 23 W/m 15,8 km/h (3 Bft) 91,49 %
22.03.2018 17:42 7,6 C 7,8 C 6,1 C 95 % 0 lf 1012,7 hPa 0,0 l/m 0 min 0 min 19 W/m 18,0 km/h (3 Bft) 97,87 %
22.03.2018 17:44 7,6 C 7,8 C 6,1 C 94 % 0 lf 1012,6 hPa 0,0 l/m 0 min 0 min 16 W/m 9,0 km/h (2 Bft) 100,00 %
22.03.2018 17:46 7,6 C 7,8 C 6,1 C 94 % 0 lf 1012,6 hPa 0,0 l/m 0 min 0 min 16 W/m 15,8 km/h (3 Bft) 95,65 %
22.03.2018 17:48 7,6 C 7,8 C 5,6 C 94 % 0 lf 1012,6 hPa 0,0 l/m 0 min 0 min 16 W/m 22,5 km/h (4 Bft) 97,87 %
22.03.2018 17:50 7,6 C 7,8 C 5,6 C 94 % 0 lf 1012,6 hPa 0,0 l/m 0 min 0 min 14 W/m 13,5 km/h (3 Bft) 97,87 %
22.03.2018 17:52 7,6 C 7,8 C 5,6 C 94 % 0 lf 1012,6 hPa 0,0 l/m 0 min 0 min 14 W/m 11,3 km/h (2 Bft) 97,87 %
22.03.2018 17:54 7,6 C 7,8 C 5,6 C 94 % 0 lf 1012,7 hPa 0,0 l/m 0 min 0 min 12 W/m 13,5 km/h (3 Bft) 95,74 %
22.03.2018 17:56 7,6 C 7,8 C 5,6 C 94 % 0 lf 1012,7 hPa 0,0 l/m 0 min 0 min 12 W/m 13,5 km/h (3 Bft) 87,23 %
22.03.2018 17:58 7,6 C 7,2 C 5,6 C 94 % 0 lf 1012,7 hPa 0,0 l/m 0 min 0 min 11 W/m 15,8 km/h (3 Bft) 95,65 %
22.03.2018 18:00 7,6 C 7,2 C 5,6 C 94 % 0 lf 1012,7 hPa 0,0 l/m 0 min 0 min 12 W/m 18,0 km/h (3 Bft) 93,62 %
22.03.2018 18:02 7,6 C 7,2 C 5,6 C 94 % 0 lf 1012,8 hPa 0,0 l/m 0 min 0 min 12 W/m 13,5 km/h (3 Bft) 95,74 %
22.03.2018 18:04 7,5 C 7,2 C 5,6 C 94 % 0 lf 1012,7 hPa 0,0 l/m 0 min 0 min 10 W/m 18,0 km/h (3 Bft) 91,49 %
22.03.2018 18:08 7,5 C 7,2 C 5,6 C 94 % 0 lf 1012,8 hPa 0,0 l/m 0 min 0 min 9 W/m 11,3 km/h (2 Bft) 95,12 %
22.03.2018 18:10 7,4 C 7,2 C 5,6 C 93 % 0 lf 1012,7 hPa 0,0 l/m 0 min 0 min 7 W/m 15,8 km/h (3 Bft) 93,62 %
22.03.2018 18:12 7,4 C 7,2 C 5,6 C 93 % 0 lf 1012,8 hPa 0,0 l/m 0 min 0 min 7 W/m 15,8 km/h (3 Bft) 97,83 %
22.03.2018 18:14 7,4 C 7,2 C 5,6 C 93 % 0 lf 1012,7 hPa 0,0 l/m 0 min 0 min 6 W/m 11,3 km/h (2 Bft) 95,74 %
22.03.2018 18:16 7,4 C 7,2 C 5,6 C 93 % 1 lf 1012,7 hPa 0,0 l/m 0 min 0 min 5 W/m 13,5 km/h (3 Bft) 93,62 %
22.03.2018 18:18 7,4 C 7,2 C 5,6 C 93 % 0 lf 1012,8 hPa 0,0 l/m 0 min 0 min 6 W/m 15,8 km/h (3 Bft) 91,49 %
22.03.2018 18:20 7,4 C 7,2 C 5,6 C 93 % 0 lf 1012,8 hPa 0,0 l/m 0 min 0 min 6 W/m 15,8 km/h (3 Bft) 94,83 %
22.03.2018 18:22 7,4 C 7,2 C 5,6 C 93 % 0 lf 1012,8 hPa 0,0 l/m 0 min 0 min 5 W/m 11,3 km/h (2 Bft) 97,22 %
22.03.2018 18:24 7,4 C 7,2 C 5,6 C 93 % 0 lf 1012,8 hPa 0,0 l/m 0 min 0 min 5 W/m 11,3 km/h (2 Bft) 95,65 %
22.03.2018 18:26 7,4 C 7,2 C 5,6 C 93 % 0 lf 1012,8 hPa 0,0 l/m 0 min 0 min 5 W/m 11,3 km/h (2 Bft) 93,62 %
22.03.2018 18:28 7,4 C 7,2 C 5,6 C 93 % 0 lf 1012,8 hPa 0,0 l/m 0 min 0 min 5 W/m 9,0 km/h (2 Bft) 95,74 %
22.03.2018 18:30 7,3 C 7,2 C 5,6 C 93 % 0 lf 1012,7 hPa 0,0 l/m 0 min 0 min 5 W/m 9,0 km/h (2 Bft) 95,74 %
22.03.2018 18:32 7,3 C 7,2 C 5,6 C 93 % 0 lf 1012,7 hPa 0,0 l/m 0 min 0 min 5 W/m 11,3 km/h (2 Bft) 95,74 %
22.03.2018 18:34 7,3 C 7,2 C 5,0 C 93 % 0 lf 1012,7 hPa 0,0 l/m 0 min 0 min 5 W/m 11,3 km/h (2 Bft) 95,74 %
22.03.2018 18:36 7,3 C 7,2 C 5,0 C 93 % 0 lf 1012,7 hPa 0,0 l/m 0 min 0 min 0 W/m 11,3 km/h (2 Bft) 95,65 %
22.03.2018 18:38 7,3 C 7,2 C 5,0 C 93 % 0 lf 1012,8 hPa 0,0 l/m 0 min 0 min 0 W/m 15,8 km/h (3 Bft) 100,00 %
22.03.2018 18:40 7,3 C 7,2 C 5,0 C 93 % 0 lf 1012,9 hPa 0,0 l/m 0 min 0 min 0 W/m 9,0 km/h (2 Bft) 97,87 %
22.03.2018 18:42 7,3 C 7,2 C 5,0 C 93 % 0 lf 1012,7 hPa 0,0 l/m 0 min 0 min 0 W/m 9,0 km/h (2 Bft) 97,87 %
22.03.2018 18:44 7,3 C 7,2 C 5,0 C 93 % 0 lf 1012,7 hPa 0,0 l/m 0 min 0 min 0 W/m 13,5 km/h (3 Bft) 97,87 %
22.03.2018 18:46 7,3 C 7,2 C 5,0 C 93 % 0 lf 1012,7 hPa 0,0 l/m 0 min 0 min 0 W/m 13,5 km/h (3 Bft) 93,62 %
22.03.2018 18:48 7,3 C 7,2 C 5,0 C 93 % 0 lf 1012,7 hPa 0,0 l/m 0 min 0 min 0 W/m 9,0 km/h (2 Bft) 97,83 %
22.03.2018 18:50 7,2 C 7,2 C 5,0 C 93 % 0 lf 1012,7 hPa 0,0 l/m 0 min 0 min 0 W/m 9,0 km/h (2 Bft) 94,92 %
22.03.2018 18:52 7,2 C 7,2 C 5,0 C 93 % 0 lf 1012,7 hPa 0,0 l/m 0 min 0 min 0 W/m 11,3 km/h (2 Bft) 97,14 %
22.03.2018 18:54 7,2 C 7,2 C 5,0 C 93 % 0 lf 1012,7 hPa 0,0 l/m 0 min 0 min 0 W/m 13,5 km/h (3 Bft) 97,87 %
22.03.2018 18:56 7,2 C 7,2 C 5,0 C 93 % 1 lf 1012,7 hPa 0,0 l/m 0 min 0 min 0 W/m 13,5 km/h (3 Bft) 97,87 %
22.03.2018 18:58 7,2 C 7,2 C 5,0 C 93 % 1 lf 1012,7 hPa 0,0 l/m 0 min 0 min 0 W/m 9,0 km/h (2 Bft) 97,87 %
22.03.2018 19:00 7,2 C 6,7 C 5,0 C 93 % 0 lf 1012,6 hPa 0,0 l/m 0 min 0 min 0 W/m 11,3 km/h (2 Bft) 95,65 %
22.03.2018 19:02 7,2 C 6,7 C 5,0 C 93 % 0 lf 1012,6 hPa 0,0 l/m 0 min 0 min 0 W/m 11,3 km/h (2 Bft) 97,87 %
22.03.2018 19:04 7,2 C 6,7 C 5,0 C 93 % 1 lf 1012,6 hPa 0,0 l/m 0 min 0 min 0 W/m 15,8 km/h (3 Bft) 95,74 %
22.03.2018 19:06 7,2 C 6,7 C 5,0 C 93 % 1 lf 1012,6 hPa 0,0 l/m 0 min 0 min 0 W/m 15,8 km/h (3 Bft) 97,87 %
22.03.2018 19:08 7,2 C 6,7 C 5,0 C 93 % 1 lf 1012,6 hPa 0,0 l/m 0 min 0 min 0 W/m 13,5 km/h (3 Bft) 97,87 %
22.03.2018 19:10 7,2 C 6,7 C 5,0 C 93 % 1 lf 1012,6 hPa 0,0 l/m 0 min 0 min 0 W/m 13,5 km/h (3 Bft) 95,74 %
22.03.2018 19:12 7,2 C 6,7 C 5,0 C 93 % 1 lf 1012,6 hPa 0,0 l/m 0 min 0 min 0 W/m 11,3 km/h (2 Bft) 95,65 %
22.03.2018 19:14 7,2 C 6,7 C 5,0 C 93 % 1 lf 1012,6 hPa 0,0 l/m 0 min 0 min 0 W/m 11,3 km/h (2 Bft) 97,87 %
22.03.2018 19:16 7,2 C 6,7 C 5,0 C 93 % 1 lf 1012,6 hPa 0,0 l/m 0 min 0 min 0 W/m 11,3 km/h (2 Bft) 95,74 %
22.03.2018 19:18 7,2 C 6,7 C 5,0 C 93 % 1 lf 1012,7 hPa 0,0 l/m 0 min 0 min 0 W/m 9,0 km/h (2 Bft) 100,00 %
22.03.2018 19:20 7,2 C 6,7 C 5,0 C 93 % 1 lf 1012,7 hPa 0,0 l/m 0 min 0 min 0 W/m 11,3 km/h (2 Bft) 94,83 %
22.03.2018 19:22 7,2 C 6,7 C 5,0 C 93 % 2 lf 1012,7 hPa 0,0 l/m 0 min 0 min 0 W/m 4,5 km/h (1 Bft) 94,29 %
22.03.2018 19:24 7,2 C 6,7 C 5,0 C 93 % 2 lf 1012,6 hPa 0,0 l/m 0 min 0 min 0 W/m 11,3 km/h (2 Bft) 100,00 %
22.03.2018 19:26 7,2 C 6,7 C 5,0 C 93 % 2 lf 1012,6 hPa 0,0 l/m 0 min 0 min 0 W/m 9,0 km/h (2 Bft) 100,00 %
22.03.2018 19:28 7,2 C 6,7 C 5,0 C 93 % 3 lf 1012,7 hPa 0,0 l/m 0 min 0 min 0 W/m 11,3 km/h (2 Bft) 97,87 %
22.03.2018 19:30 7,2 C 6,7 C 5,0 C 94 % 4 lf 1012,7 hPa 0,0 l/m 0 min 0 min 0 W/m 9,0 km/h (2 Bft) 97,87 %
22.03.2018 19:32 7,2 C 6,7 C 5,0 C 94 % 6 lf 1012,7 hPa 0,0 l/m 0 min 0 min 0 W/m 9,0 km/h (2 Bft) 97,87 %
22.03.2018 19:34 7,2 C 6,7 C 5,0 C 93 % 7 lf 1012,8 hPa 0,0 l/m 0 min 0 min 0 W/m 6,8 km/h (2 Bft) 97,83 %
22.03.2018 19:36 7,2 C 6,7 C 5,0 C 94 % 9 lf 1012,9 hPa 0,0 l/m 0 min 0 min 0 W/m 11,3 km/h (2 Bft) 97,87 %
22.03.2018 19:38 7,1 C 6,7 C 5,0 C 94 % 10 lf 1012,7 hPa 0,0 l/m 0 min 0 min 0 W/m 9,0 km/h (2 Bft) 97,87 %
22.03.2018 19:40 7,1 C 6,7 C 5,0 C 94 % 11 lf 1012,7 hPa 0,0 l/m 0 min 0 min 0 W/m 9,0 km/h (2 Bft) 97,87 %
22.03.2018 19:42 7,1 C 6,7 C 5,0 C 94 % 11 lf 1012,8 hPa 0,0 l/m 0 min 0 min 0 W/m 9,0 km/h (2 Bft) 97,87 %
22.03.2018 19:44 7,1 C 6,7 C 5,0 C 94 % 12 lf 1012,7 hPa 0,0 l/m 0 min 0 min 0 W/m 6,8 km/h (2 Bft) 97,87 %
22.03.2018 19:46 7,1 C 6,7 C 5,0 C 94 % 12 lf 1012,7 hPa 0,0 l/m 0 min 0 min 0 W/m 9,0 km/h (2 Bft) 95,65 %
22.03.2018 19:48 7,1 C 6,7 C 5,0 C 94 % 13 lf 1012,7 hPa 0,0 l/m 0 min 0 min 0 W/m 11,3 km/h (2 Bft) 95,74 %
22.03.2018 19:50 7,1 C 6,7 C 5,0 C 94 % 13 lf 1012,7 hPa 0,0 l/m 0 min 0 min 0 W/m 6,8 km/h (2 Bft) 93,22 %
22.03.2018 19:52 7,1 C 6,7 C 5,0 C 94 % 14 lf 1012,6 hPa 0,0 l/m 0 min 0 min 0 W/m 9,0 km/h (2 Bft) 97,14 %
22.03.2018 19:54 7,0 C 6,7 C 5,0 C 94 % 14 lf 1012,6 hPa 0,0 l/m 0 min 0 min 0 W/m 15,8 km/h (3 Bft) 97,87 %
22.03.2018 19:56 7,0 C 6,7 C 5,0 C 94 % 14 lf 1012,6 hPa 0,0 l/m 0 min 0 min 0 W/m 9,0 km/h (2 Bft) 97,87 %
22.03.2018 19:58 7,0 C 6,7 C 5,0 C 94 % 14 lf 1012,7 hPa 0,0 l/m 0 min 0 min 0 W/m 11,3 km/h (2 Bft) 97,83 %
22.03.2018 20:00 7,0 C 6,7 C 5,0 C 94 % 14 lf 1012,6 hPa 0,0 l/m 0 min 0 min 0 W/m 11,3 km/h (2 Bft) 97,87 %
22.03.2018 20:02 6,9 C 6,7 C 5,0 C 94 % 14 lf 1012,6 hPa 0,0 l/m 0 min 0 min 0 W/m 11,3 km/h (2 Bft) 95,74 %
22.03.2018 20:04 6,9 C 6,7 C 5,0 C 94 % 14 lf 1012,6 hPa 0,0 l/m 0 min 0 min 0 W/m 9,0 km/h (2 Bft) 97,87 %
22.03.2018 20:06 6,9 C 6,1 C 5,0 C 94 % 14 lf 1012,5 hPa 0,0 l/m 0 min 0 min 0 W/m 11,3 km/h (2 Bft) 95,74 %
22.03.2018 20:08 6,9 C 6,1 C 5,0 C 94 % 14 lf 1012,5 hPa 0,0 l/m 0 min 0 min 0 W/m 9,0 km/h (2 Bft) 97,87 %
22.03.2018 20:10 6,9 C 6,1 C 5,0 C 94 % 13 lf 1012,6 hPa 0,0 l/m 0 min 0 min 0 W/m 9,0 km/h (2 Bft) 95,65 %
22.03.2018 20:12 6,9 C 6,1 C 5,0 C 94 % 13 lf 1012,6 hPa 0,0 l/m 0 min 0 min 0 W/m 11,3 km/h (2 Bft) 95,74 %
22.03.2018 20:14 6,9 C 6,1 C 5,0 C 94 % 13 lf 1012,5 hPa 0,0 l/m 0 min 0 min 0 W/m 6,8 km/h (2 Bft) 95,74 %
22.03.2018 20:16 6,9 C 6,1 C 5,0 C 94 % 13 lf 1012,5 hPa 0,0 l/m 0 min 0 min 0 W/m 11,3 km/h (2 Bft) 97,87 %
22.03.2018 20:18 6,8 C 6,1 C 5,0 C 94 % 12 lf 1012,6 hPa 0,0 l/m 0 min 0 min 0 W/m 9,0 km/h (2 Bft) 97,87 %
22.03.2018 20:20 6,8 C 6,1 C 5,0 C 94 % 12 lf 1012,6 hPa 0,0 l/m 0 min 0 min 0 W/m 9,0 km/h (2 Bft) 96,55 %
22.03.2018 20:22 6,8 C 6,1 C 5,0 C 95 % 12 lf 1012,5 hPa 0,0 l/m 0 min 0 min 0 W/m 11,3 km/h (2 Bft) 97,14 %
22.03.2018 20:24 6,8 C 6,1 C 5,0 C 95 % 11 lf 1012,6 hPa 0,0 l/m 0 min 0 min 0 W/m 6,8 km/h (2 Bft) 100,00 %
22.03.2018 20:26 6,8 C 6,7 C 5,0 C 95 % 10 lf 1012,6 hPa 0,0 l/m 0 min 0 min 0 W/m 9,0 km/h (2 Bft) 100,00 %
22.03.2018 20:28 6,8 C 6,7 C 5,0 C 95 % 9 lf 1012,6 hPa 0,0 l/m 0 min 0 min 0 W/m 9,0 km/h (2 Bft) 100,00 %
22.03.2018 20:30 6,8 C 6,7 C 5,0 C 95 % 8 lf 1012,6 hPa 0,0 l/m 0 min 0 min 0 W/m 11,3 km/h (2 Bft) 91,49 %
22.03.2018 20:32 6,7 C 6,7 C 5,0 C 95 % 7 lf 1012,6 hPa 0,0 l/m 0 min 0 min 0 W/m 11,3 km/h (2 Bft) 97,83 %
22.03.2018 20:34 6,7 C 6,7 C 5,0 C 95 % 6 lf 1012,6 hPa 0,0 l/m 0 min 0 min 0 W/m 4,5 km/h (1 Bft) 97,87 %
22.03.2018 20:36 6,7 C 6,7 C 5,0 C 95 % 4 lf 1012,7 hPa 0,0 l/m 0 min 0 min 0 W/m 11,3 km/h (2 Bft) 95,74 %
22.03.2018 20:38 6,7 C 6,1 C 5,0 C 95 % 4 lf 1012,6 hPa 0,0 l/m 0 min 0 min 0 W/m 13,5 km/h (3 Bft) 97,87 %
22.03.2018 20:40 6,7 C 6,1 C 5,0 C 95 % 3 lf 1012,6 hPa 0,0 l/m 0 min 0 min 0 W/m 9,0 km/h (2 Bft) 95,74 %
22.03.2018 20:42 6,7 C 6,1 C 5,0 C 95 % 3 lf 1012,7 hPa 0,0 l/m 0 min 0 min 0 W/m 4,5 km/h (1 Bft) 95,74 %
22.03.2018 20:44 6,7 C 6,1 C 4,4 C 95 % 2 lf 1012,6 hPa 0,0 l/m 0 min 0 min 0 W/m 13,5 km/h (3 Bft) 95,65 %
22.03.2018 20:46 6,6 C 6,1 C 4,4 C 95 % 2 lf 1012,6 hPa 0,0 l/m 0 min 0 min 0 W/m 9,0 km/h (2 Bft) 97,87 %
22.03.2018 20:48 6,6 C 6,1 C 4,4 C 95 % 1 lf 1012,6 hPa 0,0 l/m 0 min 0 min 0 W/m 11,3 km/h (2 Bft) 93,62 %
22.03.2018 20:50 6,6 C 6,1 C 4,4 C 95 % 1 lf 1012,6 hPa 0,0 l/m 0 min 0 min 0 W/m 4,5 km/h (1 Bft) 94,92 %
22.03.2018 20:52 6,6 C 6,1 C 4,4 C 95 % 0 lf 1012,7 hPa 0,0 l/m 0 min 0 min 0 W/m 4,5 km/h (1 Bft) 97,14 %
22.03.2018 20:54 6,6 C 6,1 C 4,4 C 95 % 0 lf 1012,6 hPa 0,0 l/m 0 min 0 min 0 W/m 13,5 km/h (3 Bft) 95,74 %
22.03.2018 20:56 6,6 C 6,1 C 4,4 C 95 % 0 lf 1012,6 hPa 0,0 l/m 0 min 0 min 0 W/m 13,5 km/h (3 Bft) 95,65 %
22.03.2018 20:58 6,5 C 6,1 C 4,4 C 95 % 0 lf 1012,5 hPa 0,0 l/m 0 min 0 min 0 W/m 9,0 km/h (2 Bft) 93,62 %
22.03.2018 21:00 6,5 C 6,1 C 4,4 C 95 % 0 lf 1012,5 hPa 0,0 l/m 0 min 0 min 0 W/m 6,8 km/h (2 Bft) 93,62 %
22.03.2018 21:02 6,5 C 6,1 C 4,4 C 95 % 0 lf 1012,5 hPa 0,0 l/m 0 min 0 min 0 W/m 9,0 km/h (2 Bft) 95,74 %
22.03.2018 21:04 6,4 C 6,1 C 4,4 C 95 % 0 lf 1012,5 hPa 0,0 l/m 0 min 0 min 0 W/m 11,3 km/h (2 Bft) 91,49 %
22.03.2018 21:06 6,4 C 6,1 C 4,4 C 95 % 0 lf 1012,4 hPa 0,0 l/m 0 min 0 min 0 W/m 9,0 km/h (2 Bft) 91,49 %
22.03.2018 21:08 6,4 C 6,1 C 4,4 C 95 % 0 lf 1012,4 hPa 0,0 l/m 0 min 0 min 0 W/m 11,3 km/h (2 Bft) 93,48 %
22.03.2018 21:10 6,4 C 6,1 C 4,4 C 95 % 0 lf 1012,5 hPa 0,0 l/m 0 min 0 min 0 W/m 15,8 km/h (3 Bft) 91,49 %
22.03.2018 21:12 6,4 C 6,1 C 4,4 C 95 % 0 lf 1012,5 hPa 0,0 l/m 0 min 0 min 0 W/m 9,0 km/h (2 Bft) 93,62 %
22.03.2018 21:14 6,4 C 6,1 C 4,4 C 95 % 0 lf 1012,5 hPa 0,0 l/m 0 min 0 min 0 W/m 9,0 km/h (2 Bft) 95,74 %
22.03.2018 21:16 6,4 C 6,1 C 4,4 C 95 % 0 lf 1012,5 hPa 0,0 l/m 0 min 0 min 0 W/m 9,0 km/h (2 Bft) 95,74 %
22.03.2018 21:18 6,4 C 6,1 C 4,4 C 95 % 0 lf 1012,5 hPa 0,0 l/m 0 min 0 min 0 W/m 9,0 km/h (2 Bft) 93,62 %
22.03.2018 21:20 6,3 C 6,1 C 4,4 C 95 % 0 lf 1012,5 hPa 0,0 l/m 0 min 0 min 0 W/m 15,8 km/h (3 Bft) 94,83 %
22.03.2018 21:22 6,3 C 6,1 C 4,4 C 95 % 0 lf 1012,5 hPa 0,0 l/m 0 min 0 min 0 W/m 9,0 km/h (2 Bft) 94,29 %
22.03.2018 21:24 6,3 C 6,1 C 4,4 C 95 % 0 lf 1012,5 hPa 0,0 l/m 0 min 0 min 0 W/m 11,3 km/h (2 Bft) 95,74 %
22.03.2018 21:26 6,3 C 6,1 C 4,4 C 95 % 0 lf 1012,4 hPa 0,0 l/m 0 min 0 min 0 W/m 6,8 km/h (2 Bft) 93,62 %
22.03.2018 21:28 6,3 C 6,1 C 4,4 C 95 % 0 lf 1012,5 hPa 0,0 l/m 0 min 0 min 0 W/m 11,3 km/h (2 Bft) 97,87 %
22.03.2018 21:30 6,3 C 6,1 C 4,4 C 95 % 0 lf 1012,5 hPa 0,0 l/m 0 min 0 min 0 W/m 6,8 km/h (2 Bft) 97,87 %
22.03.2018 21:32 6,3 C 6,1 C 4,4 C 95 % 0 lf 1012,5 hPa 0,0 l/m 0 min 0 min 0 W/m 6,8 km/h (2 Bft) 100,00 %
22.03.2018 21:34 6,3 C 6,1 C 4,4 C 95 % 0 lf 1012,5 hPa 0,0 l/m 0 min 0 min 0 W/m 6,8 km/h (2 Bft) 97,87 %
22.03.2018 21:36 6,3 C 6,1 C 4,4 C 95 % 0 lf 1012,5 hPa 0,0 l/m 0 min 0 min 0 W/m 9,0 km/h (2 Bft) 97,87 %
22.03.2018 21:38 6,3 C 6,1 C 4,4 C 95 % 0 lf 1012,4 hPa 0,0 l/m 0 min 0 min 0 W/m 6,8 km/h (2 Bft) 93,62 %
22.03.2018 21:40 6,3 C 6,1 C 4,4 C 95 % 0 lf 1012,4 hPa 0,0 l/m 0 min 0 min 0 W/m 9,0 km/h (2 Bft) 95,74 %
22.03.2018 21:42 6,3 C 6,1 C 4,4 C 95 % 0 lf 1012,4 hPa 0,0 l/m 0 min 0 min 0 W/m 9,0 km/h (2 Bft) 95,65 %
22.03.2018 21:44 6,3 C 6,1 C 4,4 C 95 % 0 lf 1012,4 hPa 0,0 l/m 0 min 0 min 0 W/m 6,8 km/h (2 Bft) 97,87 %
22.03.2018 21:46 6,3 C 6,1 C 4,4 C 95 % 0 lf 1012,4 hPa 0,0 l/m 0 min 0 min 0 W/m 9,0 km/h (2 Bft) 97,87 %
22.03.2018 21:48 6,3 C 6,1 C 4,4 C 95 % 0 lf 1012,4 hPa 0,0 l/m 0 min 0 min 0 W/m 9,0 km/h (2 Bft) 97,87 %
22.03.2018 21:50 6,3 C 6,1 C 4,4 C 95 % 0 lf 1012,4 hPa 0,0 l/m 0 min 0 min 0 W/m 9,0 km/h (2 Bft) 96,61 %
22.03.2018 21:52 6,3 C 6,1 C 4,4 C 95 % 0 lf 1012,3 hPa 0,0 l/m 0 min 0 min 0 W/m 6,8 km/h (2 Bft) 100,00 %
22.03.2018 21:54 6,3 C 6,1 C 4,4 C 95 % 0 lf 1012,4 hPa 0,0 l/m 0 min 0 min 0 W/m 9,0 km/h (2 Bft) 95,65 %
22.03.2018 21:56 6,3 C 6,1 C 4,4 C 95 % 0 lf 1012,4 hPa 0,0 l/m 0 min 0 min 0 W/m 6,8 km/h (2 Bft) 97,87 %
22.03.2018 21:58 6,3 C 6,1 C 4,4 C 95 % 0 lf 1012,4 hPa 0,0 l/m 0 min 0 min 0 W/m 11,3 km/h (2 Bft) 100,00 %
22.03.2018 22:00 6,3 C 6,1 C 4,4 C 95 % 0 lf 1012,4 hPa 0,0 l/m 0 min 0 min 0 W/m 9,0 km/h (2 Bft) 97,87 %
22.03.2018 22:02 6,3 C 6,1 C 4,4 C 95 % 0 lf 1012,4 hPa 0,0 l/m 0 min 0 min 0 W/m 6,8 km/h (2 Bft) 100,00 %
22.03.2018 22:04 6,3 C 6,1 C 4,4 C 95 % 0 lf 1012,4 hPa 0,0 l/m 0 min 0 min 0 W/m 9,0 km/h (2 Bft) 100,00 %
22.03.2018 22:06 6,3 C 6,1 C 4,4 C 95 % 0 lf 1012,4 hPa 0,0 l/m 0 min 0 min 0 W/m 15,8 km/h (3 Bft) 97,83 %
22.03.2018 22:08 6,3 C 6,1 C 4,4 C 95 % 0 lf 1012,4 hPa 0,0 l/m 0 min 0 min 0 W/m 9,0 km/h (2 Bft) 100,00 %
22.03.2018 22:10 6,3 C 6,1 C 4,4 C 95 % 0 lf 1012,4 hPa 0,0 l/m 0 min 0 min 0 W/m 9,0 km/h (2 Bft) 97,87 %
22.03.2018 22:12 6,3 C 6,1 C 4,4 C 95 % 0 lf 1012,4 hPa 0,0 l/m 0 min 0 min 0 W/m 9,0 km/h (2 Bft) 97,87 %
22.03.2018 22:14 6,3 C 6,1 C 4,4 C 95 % 0 lf 1012,4 hPa 0,0 l/m 0 min 0 min 0 W/m 13,5 km/h (3 Bft) 100,00 %
22.03.2018 22:16 6,3 C 6,1 C 4,4 C 95 % 0 lf 1012,5 hPa 0,0 l/m 0 min 0 min 0 W/m 9,0 km/h (2 Bft) 100,00 %
22.03.2018 22:18 6,3 C 6,1 C 4,4 C 95 % 0 lf 1012,4 hPa 0,0 l/m 0 min 0 min 0 W/m 9,0 km/h (2 Bft) 97,83 %
22.03.2018 22:20 6,3 C 6,1 C 4,4 C 95 % 0 lf 1012,5 hPa 0,0 l/m 0 min 0 min 0 W/m 9,0 km/h (2 Bft) 98,31 %
22.03.2018 22:22 6,3 C 6,1 C 4,4 C 95 % 0 lf 1012,4 hPa 0,0 l/m 0 min 0 min 0 W/m 9,0 km/h (2 Bft) 100,00 %
22.03.2018 22:24 6,3 C 6,1 C 4,4 C 95 % 0 lf 1012,4 hPa 0,0 l/m 0 min 0 min 0 W/m 6,8 km/h (2 Bft) 100,00 %
22.03.2018 22:26 6,3 C 6,1 C 4,4 C 95 % 0 lf 1012,4 hPa 0,0 l/m 0 min 0 min 0 W/m 9,0 km/h (2 Bft) 97,87 %
22.03.2018 22:28 6,3 C 6,1 C 4,4 C 95 % 0 lf 1012,4 hPa 0,0 l/m 0 min 0 min 0 W/m 9,0 km/h (2 Bft) 97,87 %
22.03.2018 22:30 6,3 C 6,1 C 4,4 C 95 % 0 lf 1012,4 hPa 0,0 l/m 0 min 0 min 0 W/m 11,3 km/h (2 Bft) 100,00 %
22.03.2018 22:32 6,2 C 6,1 C 4,4 C 95 % 0 lf 1012,3 hPa 0,0 l/m 0 min 0 min 0 W/m 9,0 km/h (2 Bft) 97,87 %
22.03.2018 22:34 6,2 C 6,1 C 4,4 C 95 % 0 lf 1012,4 hPa 0,0 l/m 0 min 0 min 0 W/m 9,0 km/h (2 Bft) 100,00 %
22.03.2018 22:36 6,2 C 6,1 C 4,4 C 95 % 0 lf 1012,4 hPa 0,0 l/m 0 min 0 min 0 W/m 9,0 km/h (2 Bft) 97,87 %
22.03.2018 22:38 6,2 C 6,1 C 4,4 C 95 % 0 lf 1012,4 hPa 0,0 l/m 0 min 0 min 0 W/m 11,3 km/h (2 Bft) 97,87 %
22.03.2018 22:40 6,2 C 6,1 C 4,4 C 95 % 0 lf 1012,3 hPa 0,0 l/m 0 min 0 min 0 W/m 11,3 km/h (2 Bft) 100,00 %
22.03.2018 22:42 6,2 C 6,1 C 4,4 C 95 % 0 lf 1012,3 hPa 0,0 l/m 0 min 0 min 0 W/m 11,3 km/h (2 Bft) 95,65 %
22.03.2018 22:44 6,2 C 6,1 C 4,4 C 95 % 0 lf 1012,4 hPa 0,0 l/m 0 min 0 min 0 W/m 6,8 km/h (2 Bft) 91,49 %
22.03.2018 22:46 6,2 C 6,1 C 4,4 C 95 % 0 lf 1012,4 hPa 0,0 l/m 0 min 0 min 0 W/m 6,8 km/h (2 Bft) 95,74 %
22.03.2018 22:48 6,2 C 6,1 C 4,4 C 95 % 0 lf 1012,4 hPa 0,0 l/m 0 min 0 min 0 W/m 11,3 km/h (2 Bft) 95,74 %
22.03.2018 22:50 6,2 C 6,1 C 4,4 C 95 % 0 lf 1012,3 hPa 0,0 l/m 0 min 0 min 0 W/m 9,0 km/h (2 Bft) 94,83 %
22.03.2018 22:52 6,2 C 6,1 C 4,4 C 95 % 0 lf 1012,2 hPa 0,0 l/m 0 min 0 min 0 W/m 6,8 km/h (2 Bft) 94,44 %
22.03.2018 22:54 6,2 C 6,1 C 4,4 C 95 % 0 lf 1012,2 hPa 0,0 l/m 0 min 0 min 0 W/m 13,5 km/h (3 Bft) 95,65 %
22.03.2018 22:56 6,1 C 6,1 C 4,4 C 95 % 0 lf 1012,2 hPa 0,0 l/m 0 min 0 min 0 W/m 13,5 km/h (3 Bft) 91,49 %
22.03.2018 22:58 6,1 C 6,1 C 4,4 C 95 % 0 lf 1012,2 hPa 0,0 l/m 0 min 0 min 0 W/m 11,3 km/h (2 Bft) 93,62 %
22.03.2018 23:00 6,1 C 6,1 C 4,4 C 95 % 0 lf 1012,2 hPa 0,0 l/m 0 min 0 min 0 W/m 6,8 km/h (2 Bft) 93,62 %
22.03.2018 23:02 6,1 C 6,1 C 4,4 C 95 % 0 lf 1012,2 hPa 0,0 l/m 0 min 0 min 0 W/m 9,0 km/h (2 Bft) 93,62 %
22.03.2018 23:04 6,1 C 6,1 C 4,4 C 95 % 0 lf 1012,2 hPa 0,0 l/m 0 min 0 min 0 W/m 11,3 km/h (2 Bft) 93,48 %
22.03.2018 23:06 6,1 C 6,1 C 4,4 C 95 % 0 lf 1012,1 hPa 0,0 l/m 0 min 0 min 0 W/m 9,0 km/h (2 Bft) 93,62 %
22.03.2018 23:08 6,1 C 6,1 C 4,4 C 95 % 0 lf 1012,1 hPa 0,0 l/m 0 min 0 min 0 W/m 6,8 km/h (2 Bft) 89,36 %
22.03.2018 23:10 6,1 C 6,1 C 4,4 C 95 % 0 lf 1012,2 hPa 0,0 l/m 0 min 0 min 0 W/m 9,0 km/h (2 Bft) 93,62 %
22.03.2018 23:12 6,1 C 6,1 C 4,4 C 95 % 0 lf 1012,1 hPa 0,0 l/m 0 min 0 min 0 W/m 9,0 km/h (2 Bft) 89,36 %
22.03.2018 23:14 6,1 C 6,1 C 4,4 C 95 % 0 lf 1012,1 hPa 0,0 l/m 0 min 0 min 0 W/m 13,5 km/h (3 Bft) 93,62 %
22.03.2018 23:16 6,1 C 6,1 C 4,4 C 95 % 0 lf 1012,1 hPa 0,0 l/m 0 min 0 min 0 W/m 6,8 km/h (2 Bft) 93,48 %
22.03.2018 23:18 6,1 C 5,6 C 4,4 C 95 % 0 lf 1012,1 hPa 0,0 l/m 0 min 0 min 0 W/m 4,5 km/h (1 Bft) 91,49 %
22.03.2018 23:20 6,1 C 5,6 C 4,4 C 95 % 0 lf 1012,0 hPa 0,0 l/m 0 min 0 min 0 W/m 11,3 km/h (2 Bft) 91,53 %
22.03.2018 23:22 6,1 C 5,6 C 4,4 C 95 % 0 lf 1012,0 hPa 0,0 l/m 0 min 0 min 0 W/m 9,0 km/h (2 Bft) 91,43 %
22.03.2018 23:24 6,0 C 5,6 C 4,4 C 95 % 0 lf 1012,0 hPa 0,0 l/m 0 min 0 min 0 W/m 6,8 km/h (2 Bft) 93,62 %
22.03.2018 23:26 6,0 C 5,6 C 4,4 C 95 % 0 lf 1012,0 hPa 0,0 l/m 0 min 0 min 0 W/m 11,3 km/h (2 Bft) 93,62 %
22.03.2018 23:28 6,0 C 5,6 C 4,4 C 95 % 0 lf 1012,0 hPa 0,0 l/m 0 min 0 min 0 W/m 9,0 km/h (2 Bft) 91,30 %
22.03.2018 23:30 6,0 C 5,6 C 4,4 C 95 % 0 lf 1011,9 hPa 0,0 l/m 0 min 0 min 0 W/m 11,3 km/h (2 Bft) 97,87 %
22.03.2018 23:32 6,0 C 5,6 C 4,4 C 95 % 0 lf 1011,9 hPa 0,0 l/m 0 min 0 min 0 W/m 9,0 km/h (2 Bft) 95,74 %
22.03.2018 23:34 6,0 C 5,6 C 4,4 C 95 % 0 lf 1011,9 hPa 0,0 l/m 0 min 0 min 0 W/m 9,0 km/h (2 Bft) 95,74 %
22.03.2018 23:36 6,0 C 5,6 C 4,4 C 95 % 0 lf 1011,9 hPa 0,0 l/m 0 min 0 min 0 W/m 11,3 km/h (2 Bft) 95,74 %
22.03.2018 23:38 5,9 C 5,6 C 4,4 C 95 % 0 lf 1011,9 hPa 0,0 l/m 0 min 0 min 0 W/m 13,5 km/h (3 Bft) 95,74 %
22.03.2018 23:40 5,9 C 5,6 C 4,4 C 95 % 0 lf 1011,9 hPa 0,0 l/m 0 min 0 min 0 W/m 9,0 km/h (2 Bft) 97,83 %
22.03.2018 23:42 5,9 C 5,6 C 4,4 C 95 % 0 lf 1011,8 hPa 0,0 l/m 0 min 0 min 0 W/m 15,8 km/h (3 Bft) 97,87 %
22.03.2018 23:44 5,9 C 5,6 C 4,4 C 95 % 0 lf 1011,8 hPa 0,0 l/m 0 min 0 min 0 W/m 6,8 km/h (2 Bft) 100,00 %
22.03.2018 23:46 5,9 C 5,6 C 4,4 C 95 % 0 lf 1011,8 hPa 0,0 l/m 0 min 0 min 0 W/m 9,0 km/h (2 Bft) 95,74 %
22.03.2018 23:48 5,9 C 5,6 C 4,4 C 95 % 0 lf 1011,8 hPa 0,0 l/m 0 min 0 min 0 W/m 15,8 km/h (3 Bft) 97,87 %
22.03.2018 23:50 5,9 C 5,6 C 4,4 C 95 % 0 lf 1011,6 hPa 0,0 l/m 0 min 0 min 0 W/m 11,3 km/h (2 Bft) 100,00 %
22.03.2018 23:52 5,9 C 5,6 C 4,4 C 95 % 0 lf 1011,7 hPa 0,0 l/m 0 min 0 min 0 W/m 9,0 km/h (2 Bft) 100,00 %
22.03.2018 23:54 5,9 C 5,6 C 4,4 C 95 % 0 lf 1011,6 hPa 0,0 l/m 0 min 0 min 0 W/m 11,3 km/h (2 Bft) 100,00 %
22.03.2018 23:56 5,9 C 5,6 C 4,4 C 95 % 0 lf 1011,6 hPa 0,0 l/m 0 min 0 min 0 W/m 11,3 km/h (2 Bft) 100,00 %
22.03.2018 23:58 5,9 C 5,6 C 4,4 C 95 % 0 lf 1011,5 hPa 0,0 l/m 0 min 0 min 0 W/m 13,5 km/h (3 Bft) 100,00 %
_ Min-Zeit 00:22 00:00 00:00 02:14 00:00 23:58 - - - - 19:22 04:02
Minimum _ 2,4 C 2,2 C 0,6 C 82 % 0 lf 1011,5 hPa - - - - 4,5 km/h (1 Bft) 85,71 %
_ Max-Zeit 16:34 14:24 14:24 12:36 06:18 00:00 06:42 14:24 09:08 14:24 08:08 01:58
Maximum _ 7,7 C 12,2 C 8,9 C 98 % 15 lf 1023,3 hPa 0,2 l/m 2 min 4 min 360 W/m 40,6 km/h
W-SW (6 Bft)
100,00 %
Durchschnitt _ 5,0 C 5,0 C 3,7 C 93 % 6 lf 1015,6 hPa #1,4 l/m #2 min. #4:36 h 54 W/m 17,6 km/h (3 Bft) 96,35 %
© 2018 W. Hausmann